Time,TemperatureF,DewpointF,PressureIn,WindDirection,WindDirectionDegrees,WindSpeedMPH,WindSpeedGustMPH,Humidity,HourlyPrecipIn,Conditions,Clouds,dailyrainin,SoftwareType,DateUTC
2013-01-11 00:00:00,60.4,60.4,29.97,South,180,0.0,3.1,100,0.00,,SKC,0.00,VWS V13.01,2013-01-11 06:00:00,
2013-01-11 00:01:00,60.4,60.4,29.97,ESE,122,3.6,3.6,100,0.00,,SKC,0.00,VWS V13.01,2013-01-11 06:01:00,
2013-01-11 00:02:00,60.4,60.4,29.97,SE,125,3.1,3.6,100,0.00,,SKC,0.00,VWS V13.01,2013-01-11 06:02:00,
2013-01-11 00:03:00,60.4,60.4,29.97,SE,125,0.0,3.1,100,0.00,,SKC,0.00,VWS V13.01,2013-01-11 06:03:00,
2013-01-11 00:04:00,60.4,60.4,29.97,SE,126,3.6,3.6,100,0.00,,SKC,0.00,VWS V13.01,2013-01-11 06:04:00,
2013-01-11 00:05:00,60.4,60.4,29.97,SSE,152,3.1,3.6,100,0.00,,SKC,0.00,VWS V13.01,2013-01-11 06:05:00,
2013-01-11 00:06:00,60.6,60.6,29.97,SSE,159,2.2,3.6,100,0.00,,SKC,0.00,VWS V13.01,2013-01-11 06:06:00,
2013-01-11 00:07:00,60.6,60.6,29.97,SSE,158,3.1,3.6,100,0.00,,SKC,0.00,VWS V13.01,2013-01-11 06:07:00,
2013-01-11 00:08:00,60.6,60.6,29.97,SSE,158,0.0,3.1,100,0.00,,SKC,0.00,VWS V13.01,2013-01-11 06:08:00,
2013-01-11 00:09:00,60.6,60.6,29.97,SSE,153,2.7,3.1,100,0.00,,SKC,0.00,VWS V13.01,2013-01-11 06:09:00,
2013-01-11 00:10:00,60.6,60.6,29.97,SSE,152,3.6,3.6,100,0.00,,SKC,0.00,VWS V13.01,2013-01-11 06:10:00,
2013-01-11 00:11:00,60.6,60.6,29.97,SSE,152,2.7,3.6,100,0.00,,SKC,0.00,VWS V13.01,2013-01-11 06:11:00,
2013-01-11 00:12:00,60.6,60.6,29.97,SSE,152,2.7,2.7,100,0.00,,SKC,0.00,VWS V13.01,2013-01-11 06:12:00,
2013-01-11 00:13:00,60.6,60.6,29.97,SSE,152,2.7,2.7,100,0.00,,SKC,0.00,VWS V13.01,2013-01-11 06:13:00,
2013-01-11 00:14:00,60.6,60.6,29.97,SSE,152,0.0,0.0,100,0.00,,SKC,0.00,VWS V13.01,2013-01-11 06:14:00,
2013-01-11 00:15:00,60.6,60.6,29.97,SSE,152,0.0,0.0,100,0.00,,SKC,0.00,VWS V13.01,2013-01-11 06:15:00,
2013-01-11 00:16:00,60.6,60.6,29.97,SSE,152,0.0,0.0,100,0.00,,SKC,0.00,VWS V13.01,2013-01-11 06:16:00,
2013-01-11 00:17:00,60.6,60.6,29.97,SSE,152,0.0,0.0,100,0.00,,SKC,0.00,VWS V13.01,2013-01-11 06:17:00,
2013-01-11 00:18:00,60.6,60.6,29.97,SSE,152,0.0,0.0,100,0.00,,SKC,0.00,VWS V13.01,2013-01-11 06:18:00,
2013-01-11 00:19:00,60.6,60.6,29.97,SSE,152,2.7,3.1,100,0.00,,SKC,0.00,VWS V13.01,2013-01-11 06:19:00,
2013-01-11 00:20:00,60.6,60.6,29.97,SSE,152,0.0,2.7,100,0.00,,SKC,0.00,VWS V13.01,2013-01-11 06:20:00,
2013-01-11 00:21:00,60.6,60.6,29.97,SSE,152,0.0,0.0,100,0.00,,SKC,0.00,VWS V13.01,2013-01-11 06:21:00,
2013-01-11 00:22:00,60.6,60.6,29.97,SE,141,0.0,0.0,100,0.00,,SKC,0.00,VWS V13.01,2013-01-11 06:22:00,
2013-01-11 00:23:00,60.6,60.6,29.97,SE,146,3.6,3.6,100,0.00,,SKC,0.00,VWS V13.01,2013-01-11 06:23:00,
2013-01-11 00:24:00,60.6,60.6,29.97,ESE,120,2.7,3.6,100,0.00,,SKC,0.00,VWS V13.01,2013-01-11 06:24:00,
2013-01-11 00:25:00,60.6,60.6,29.97,SSE,149,0.0,3.1,100,0.00,,SKC,0.00,VWS V13.01,2013-01-11 06:25:00,
2013-01-11 00:26:00,60.6,60.6,29.97,SSE,149,0.0,2.2,100,0.00,,SKC,0.00,VWS V13.01,2013-01-11 06:26:00,
2013-01-11 00:27:00,60.6,60.6,29.97,SSE,149,0.0,0.0,100,0.00,,SKC,0.00,VWS V13.01,2013-01-11 06:27:00,
2013-01-11 00:28:00,60.6,60.6,29.97,SSE,149,0.0,0.0,100,0.00,,SKC,0.00,VWS V13.01,2013-01-11 06:28:00,
2013-01-11 00:29:00,60.6,60.6,29.97,SSE,149,0.0,0.0,100,0.00,,SKC,0.00,VWS V13.01,2013-01-11 06:29:00,
2013-01-11 00:30:00,60.6,60.6,29.97,SSE,149,0.0,0.0,100,0.00,,SKC,0.00,VWS V13.01,2013-01-11 06:30:00,
2013-01-11 00:31:00,60.6,60.6,29.97,ESE,113,0.0,0.0,100,0.00,,SKC,0.00,VWS V13.01,2013-01-11 06:31:00,
2013-01-11 00:32:00,60.6,60.6,29.97,East,94,3.6,3.6,100,0.00,,SKC,0.00,VWS V13.01,2013-01-11 06:32:00,
2013-01-11 00:33:00,60.6,60.6,29.97,East,89,4.0,4.0,100,0.00,,SKC,0.00,VWS V13.01,2013-01-11 06:33:00,
2013-01-11 00:34:00,60.6,60.6,29.97,SSW,202,0.0,3.6,100,0.00,,SKC,0.00,VWS V13.01,2013-01-11 06:34:00,
2013-01-11 00:35:00,60.6,60.6,29.97,WSW,254,3.6,3.6,100,0.00,,SKC,0.00,VWS V13.01,2013-01-11 06:35:00,
2013-01-11 00:36:00,60.6,60.6,29.97,WSW,254,0.0,3.6,100,0.00,,SKC,0.00,VWS V13.01,2013-01-11 06:36:00,
2013-01-11 00:37:00,60.6,60.6,29.97,WSW,253,0.0,0.0,100,0.00,,SKC,0.00,VWS V13.01,2013-01-11 06:37:00,
2013-01-11 00:38:00,60.6,60.6,29.97,WSW,253,0.0,0.0,100,0.00,,SKC,0.00,VWS V13.01,2013-01-11 06:38:00,
2013-01-11 00:39:00,60.6,60.6,29.97,WSW,254,0.0,0.0,100,0.00,,SKC,0.00,VWS V13.01,2013-01-11 06:39:00,
2013-01-11 00:40:00,60.6,60.6,29.97,SSW,195,0.0,0.0,100,0.00,,SKC,0.00,VWS V13.01,2013-01-11 06:40:00,
2013-01-11 00:41:00,60.6,60.6,29.97,SE,134,0.0,0.0,100,0.00,,SKC,0.00,VWS V13.01,2013-01-11 06:41:00,
2013-01-11 00:42:00,60.6,60.6,29.97,SE,134,0.0,0.0,100,0.00,,SKC,0.00,VWS V13.01,2013-01-11 06:42:00,
2013-01-11 00:43:00,60.6,60.6,29.97,SE,134,0.0,0.0,100,0.00,,SKC,0.00,VWS V13.01,2013-01-11 06:43:00,
2013-01-11 00:44:00,60.6,60.6,29.97,SE,134,0.0,0.0,100,0.00,,SKC,0.00,VWS V13.01,2013-01-11 06:44:00,
2013-01-11 00:45:00,60.6,60.6,29.97,SE,134,0.0,0.0,100,0.00,,SKC,0.00,VWS V13.01,2013-01-11 06:45:00,
2013-01-11 00:46:00,60.6,60.6,29.97,SE,134,0.0,0.0,100,0.00,,SKC,0.00,VWS V13.01,2013-01-11 06:46:00,
2013-01-11 00:47:00,60.6,60.6,29.97,SE,134,0.0,0.0,100,0.00,,SKC,0.00,VWS V13.01,2013-01-11 06:47:00,
2013-01-11 00:48:00,60.8,60.8,29.97,SE,134,0.0,0.0,100,0.00,,SKC,0.00,VWS V13.01,2013-01-11 06:48:00,
2013-01-11 00:49:00,60.8,60.8,29.97,SE,134,0.0,0.0,100,0.00,,SKC,0.00,VWS V13.01,2013-01-11 06:49:00,
2013-01-11 00:50:00,60.8,60.8,29.97,SE,134,0.0,0.0,100,0.00,,SKC,0.00,VWS V13.01,2013-01-11 06:50:00,
2013-01-11 00:51:00,60.8,60.8,29.97,SE,134,0.0,0.0,100,0.00,,SKC,0.00,VWS V13.01,2013-01-11 06:51:00,
2013-01-11 00:52:00,60.8,60.8,29.97,SE,134,0.0,0.0,100,0.00,,SKC,0.00,VWS V13.01,2013-01-11 06:52:00,
2013-01-11 00:53:00,60.8,60.8,29.97,SE,134,0.0,0.0,100,0.00,,SKC,0.00,VWS V13.01,2013-01-11 06:53:00,
2013-01-11 00:54:00,60.8,60.8,29.97,SSE,159,2.7,2.7,100,0.00,,SKC,0.00,VWS V13.01,2013-01-11 06:54:00,
2013-01-11 00:55:00,60.8,60.8,29.97,SSE,147,2.7,2.7,100,0.00,,SKC,0.00,VWS V13.01,2013-01-11 06:55:00,
2013-01-11 00:56:00,60.8,60.8,29.97,SSE,148,0.0,2.7,100,0.00,,SKC,0.00,VWS V13.01,2013-01-11 06:56:00,
2013-01-11 00:57:00,60.8,60.8,29.97,SSE,150,0.0,0.0,100,0.00,,SKC,0.00,VWS V13.01,2013-01-11 06:57:00,
2013-01-11 00:58:00,60.8,60.8,29.97,SSE,150,0.0,0.0,100,0.00,,SKC,0.00,VWS V13.01,2013-01-11 06:58:00,
2013-01-11 00:59:00,60.8,60.8,29.97,SSE,150,3.1,3.1,100,0.00,,SKC,0.00,VWS V13.01,2013-01-11 06:59:00,
2013-01-11 01:00:00,60.8,60.8,29.97,SSE,150,2.7,3.6,100,0.00,,SKC,0.00,VWS V13.01,2013-01-11 07:00:00,
2013-01-11 01:01:00,60.8,60.8,29.97,SSE,150,0.0,2.7,100,0.00,,SKC,0.00,VWS V13.01,2013-01-11 07:01:00,
2013-01-11 01:02:00,60.8,60.8,29.97,SSE,150,0.0,0.0,100,0.00,,SKC,0.00,VWS V13.01,2013-01-11 07:02:00,
2013-01-11 01:03:00,60.8,60.8,29.97,SSE,150,0.0,0.0,100,0.00,,SKC,0.00,VWS V13.01,2013-01-11 07:03:00,
2013-01-11 01:04:00,61.0,61.0,29.97,SSE,150,0.0,3.6,100,0.00,,SKC,0.00,VWS V13.01,2013-01-11 07:04:00,
2013-01-11 01:05:00,61.0,61.0,29.97,SSE,150,3.1,3.1,100,0.00,,SKC,0.00,VWS V13.01,2013-01-11 07:05:00,
2013-01-11 01:06:00,61.0,61.0,29.97,SSE,163,2.2,4.0,100,0.00,,SKC,0.00,VWS V13.01,2013-01-11 07:06:00,
2013-01-11 01:07:00,61.0,61.0,29.97,SSE,161,5.4,5.4,100,0.00,,SKC,0.00,VWS V13.01,2013-01-11 07:07:00,
2013-01-11 01:08:00,61.0,61.0,29.97,SSE,156,4.0,5.4,100,0.00,,SKC,0.00,VWS V13.01,2013-01-11 07:08:00,
2013-01-11 01:09:00,61.0,61.0,29.97,SSE,167,4.0,4.9,100,0.00,,SKC,0.00,VWS V13.01,2013-01-11 07:09:00,
2013-01-11 01:10:00,61.0,61.0,29.97,SSE,150,0.0,4.0,100,0.00,,SKC,0.00,VWS V13.01,2013-01-11 07:10:00,
2013-01-11 01:11:00,61.0,61.0,29.97,SSE,162,2.2,3.1,100,0.00,,SKC,0.00,VWS V13.01,2013-01-11 07:11:00,
2013-01-11 01:12:00,61.0,61.0,29.97,SSE,162,0.0,2.7,100,0.00,,SKC,0.00,VWS V13.01,2013-01-11 07:12:00,
2013-01-11 01:13:00,61.0,61.0,29.97,SSE,162,0.0,0.0,100,0.00,,SKC,0.00,VWS V13.01,2013-01-11 07:13:00,
2013-01-11 01:14:00,61.0,61.0,29.97,SSE,162,0.0,0.0,100,0.00,,SKC,0.00,VWS V13.01,2013-01-11 07:14:00,
2013-01-11 01:15:00,61.0,61.0,29.97,SSE,162,0.0,0.0,100,0.00,,SKC,0.00,VWS V13.01,2013-01-11 07:15:00,
2013-01-11 01:16:00,61.0,61.0,29.97,SSE,162,0.0,0.0,100,0.00,,SKC,0.00,VWS V13.01,2013-01-11 07:16:00,
2013-01-11 01:17:00,61.0,61.0,29.97,SSE,162,0.0,0.0,100,0.00,,SKC,0.00,VWS V13.01,2013-01-11 07:17:00,
2013-01-11 01:18:00,61.0,61.0,29.97,SSE,162,0.0,0.0,100,0.00,,SKC,0.00,VWS V13.01,2013-01-11 07:18:00,
2013-01-11 01:19:00,61.0,61.0,29.97,SSE,162,0.0,0.0,100,0.00,,SKC,0.00,VWS V13.01,2013-01-11 07:19:00,
2013-01-11 01:20:00,61.0,61.0,29.97,SSE,162,0.0,0.0,100,0.00,,SKC,0.00,VWS V13.01,2013-01-11 07:20:00,
2013-01-11 01:21:00,61.0,61.0,29.97,SSE,162,0.0,0.0,100,0.00,,SKC,0.00,VWS V13.01,2013-01-11 07:21:00,
2013-01-11 01:22:00,61.0,61.0,29.97,SSE,162,0.0,0.0,100,0.00,,SKC,0.00,VWS V13.01,2013-01-11 07:22:00,
2013-01-11 01:23:00,61.0,61.0,29.97,SSE,162,0.0,0.0,100,0.00,,SKC,0.00,VWS V13.01,2013-01-11 07:23:00,
2013-01-11 01:24:00,61.0,61.0,29.97,SE,128,3.1,3.1,100,0.00,,SKC,0.00,VWS V13.01,2013-01-11 07:24:00,
2013-01-11 01:25:00,60.8,60.8,29.97,SE,128,2.2,3.1,100,0.00,,SKC,0.00,VWS V13.01,2013-01-11 07:25:00,
2013-01-11 01:26:00,60.8,60.8,29.97,SE,128,2.7,2.7,100,0.00,,SKC,0.00,VWS V13.01,2013-01-11 07:26:00,
2013-01-11 01:27:00,60.8,60.8,29.97,SE,128,0.0,3.1,100,0.00,,SKC,0.00,VWS V13.01,2013-01-11 07:27:00,
2013-01-11 01:28:00,60.8,60.8,29.97,SE,128,0.0,0.0,100,0.00,,SKC,0.00,VWS V13.01,2013-01-11 07:28:00,
2013-01-11 01:29:00,60.6,60.6,29.97,ESE,106,2.2,3.6,100,0.00,,SKC,0.00,VWS V13.01,2013-01-11 07:29:00,
2013-01-11 01:30:00,60.6,60.6,29.97,SE,130,3.1,3.1,100,0.00,,SKC,0.00,VWS V13.01,2013-01-11 07:30:00,
2013-01-11 01:31:00,60.6,60.6,29.97,SE,130,0.0,3.1,100,0.00,,SKC,0.00,VWS V13.01,2013-01-11 07:31:00,
2013-01-11 01:32:00,60.6,60.6,29.97,SSE,160,0.0,2.2,100,0.00,,SKC,0.00,VWS V13.01,2013-01-11 07:32:00,
2013-01-11 01:33:00,60.6,60.6,29.97,SSE,148,0.0,0.0,100,0.00,,SKC,0.00,VWS V13.01,2013-01-11 07:33:00,
2013-01-11 01:34:00,60.4,60.4,29.97,SE,134,0.0,0.0,100,0.00,,SKC,0.00,VWS V13.01,2013-01-11 07:34:00,
2013-01-11 01:35:00,60.4,60.4,29.97,SE,134,0.0,0.0,100,0.00,,SKC,0.00,VWS V13.01,2013-01-11 07:35:00,
2013-01-11 01:36:00,60.4,60.4,29.97,SE,134,0.0,0.0,100,0.00,,SKC,0.00,VWS V13.01,2013-01-11 07:36:00,
2013-01-11 01:37:00,60.4,60.4,29.97,SE,134,0.0,0.0,100,0.00,,SKC,0.00,VWS V13.01,2013-01-11 07:37:00,
2013-01-11 01:38:00,60.4,60.4,29.97,SE,134,0.0,0.0,100,0.00,,SKC,0.00,VWS V13.01,2013-01-11 07:38:00,
2013-01-11 01:39:00,60.4,60.4,29.97,ESE,120,0.0,0.0,100,0.00,,SKC,0.00,VWS V13.01,2013-01-11 07:39:00,
2013-01-11 01:40:00,60.4,60.4,29.97,ESE,120,0.0,0.0,100,0.00,,SKC,0.00,VWS V13.01,2013-01-11 07:40:00,
2013-01-11 01:41:00,60.4,60.4,29.97,ESE,120,0.0,0.0,100,0.00,,SKC,0.00,VWS V13.01,2013-01-11 07:41:00,
2013-01-11 01:42:00,60.4,60.4,29.97,ESE,120,0.0,0.0,100,0.00,,SKC,0.00,VWS V13.01,2013-01-11 07:42:00,
2013-01-11 01:43:00,60.4,60.4,29.94,ESE,120,0.0,0.0,100,0.00,,SKC,0.00,VWS V13.01,2013-01-11 07:43:00,
2013-01-11 01:44:00,60.4,60.4,29.94,ESE,120,0.0,0.0,100,0.00,,SKC,0.00,VWS V13.01,2013-01-11 07:44:00,
2013-01-11 01:45:00,60.4,60.4,29.94,ESE,120,0.0,0.0,100,0.00,,SKC,0.00,VWS V13.01,2013-01-11 07:45:00,
2013-01-11 01:46:00,60.4,60.4,29.94,ESE,120,0.0,0.0,100,0.00,,SKC,0.00,VWS V13.01,2013-01-11 07:46:00,
2013-01-11 01:47:00,60.4,60.4,29.94,ESE,120,0.0,0.0,100,0.00,,SKC,0.00,VWS V13.01,2013-01-11 07:47:00,
2013-01-11 01:48:00,60.4,60.4,29.94,ESE,120,0.0,0.0,100,0.00,,SKC,0.00,VWS V13.01,2013-01-11 07:48:00,
2013-01-11 01:49:00,60.4,60.4,29.94,ESE,120,0.0,0.0,100,0.00,,SKC,0.00,VWS V13.01,2013-01-11 07:49:00,
2013-01-11 01:50:00,60.2,60.2,29.94,ESE,120,0.0,0.0,100,0.00,,SKC,0.00,VWS V13.01,2013-01-11 07:50:00,
2013-01-11 01:51:00,60.2,60.2,29.94,ESE,120,0.0,0.0,100,0.00,,SKC,0.00,VWS V13.01,2013-01-11 07:51:00,
2013-01-11 01:52:00,60.2,60.2,29.94,ESE,120,0.0,0.0,100,0.00,,SKC,0.00,VWS V13.01,2013-01-11 07:52:00,
2013-01-11 01:53:00,60.2,60.2,29.94,ESE,120,0.0,0.0,100,0.00,,SKC,0.00,VWS V13.01,2013-01-11 07:53:00,
2013-01-11 01:54:00,60.2,60.2,29.94,ESE,120,0.0,0.0,100,0.00,,SKC,0.00,VWS V13.01,2013-01-11 07:54:00,
2013-01-11 01:55:00,60.2,60.2,29.94,ESE,120,0.0,0.0,100,0.00,,SKC,0.00,VWS V13.01,2013-01-11 07:55:00,
2013-01-11 01:56:00,60.2,60.2,29.94,ESE,120,0.0,0.0,100,0.00,,SKC,0.00,VWS V13.01,2013-01-11 07:56:00,
2013-01-11 01:57:00,60.2,60.2,29.94,ESE,120,0.0,0.0,100,0.00,,SKC,0.00,VWS V13.01,2013-01-11 07:57:00,
2013-01-11 01:58:00,60.2,60.2,29.94,ESE,120,0.0,0.0,100,0.00,,SKC,0.00,VWS V13.01,2013-01-11 07:58:00,
2013-01-11 01:59:00,60.2,60.2,29.94,ESE,120,0.0,0.0,100,0.00,,SKC,0.00,VWS V13.01,2013-01-11 07:59:00,
2013-01-11 02:00:00,60.2,60.2,29.94,ESE,120,0.0,0.0,100,0.00,,SKC,0.00,VWS V13.01,2013-01-11 08:00:00,
2013-01-11 02:01:00,60.4,60.4,29.94,ESE,120,0.0,0.0,100,0.00,,SKC,0.00,VWS V13.01,2013-01-11 08:01:00,
2013-01-11 02:02:00,60.4,60.4,29.94,ESE,120,0.0,0.0,100,0.00,,SKC,0.00,VWS V13.01,2013-01-11 08:02:00,
2013-01-11 02:03:00,60.4,60.4,29.94,ESE,120,0.0,0.0,100,0.00,,SKC,0.00,VWS V13.01,2013-01-11 08:03:00,
2013-01-11 02:04:00,60.4,60.4,29.94,ESE,120,0.0,0.0,100,0.00,,SKC,0.00,VWS V13.01,2013-01-11 08:04:00,
2013-01-11 02:05:00,60.4,60.4,29.94,ESE,120,0.0,0.0,100,0.00,,SKC,0.00,VWS V13.01,2013-01-11 08:05:00,
2013-01-11 02:06:00,60.4,60.4,29.94,ESE,120,0.0,0.0,100,0.00,,SKC,0.00,VWS V13.01,2013-01-11 08:06:00,
2013-01-11 02:07:00,60.4,60.4,29.94,ESE,120,0.0,0.0,100,0.00,,SKC,0.00,VWS V13.01,2013-01-11 08:07:00,
2013-01-11 02:08:00,60.4,60.4,29.94,ESE,120,0.0,0.0,100,0.00,,SKC,0.00,VWS V13.01,2013-01-11 08:08:00,
2013-01-11 02:09:00,60.4,60.4,29.94,ESE,120,0.0,0.0,100,0.00,,SKC,0.00,VWS V13.01,2013-01-11 08:09:00,
2013-01-11 02:10:00,60.4,60.4,29.94,ESE,120,0.0,0.0,100,0.00,,SKC,0.00,VWS V13.01,2013-01-11 08:10:00,
2013-01-11 02:11:00,60.6,60.6,29.94,ESE,122,0.0,0.0,100,0.00,,SKC,0.00,VWS V13.01,2013-01-11 08:11:00,
2013-01-11 02:12:00,60.6,60.6,29.94,SSE,153,3.1,3.6,100,0.00,,SKC,0.00,VWS V13.01,2013-01-11 08:12:00,
2013-01-11 02:13:00,60.6,60.6,29.94,SSE,156,3.1,3.1,100,0.00,,SKC,0.00,VWS V13.01,2013-01-11 08:13:00,
2013-01-11 02:14:00,60.6,60.6,29.94,SSE,156,0.0,0.0,100,0.00,,SKC,0.00,VWS V13.01,2013-01-11 08:14:00,
2013-01-11 02:15:00,60.6,60.6,29.94,SSE,156,0.0,0.0,100,0.00,,SKC,0.00,VWS V13.01,2013-01-11 08:15:00,
2013-01-11 02:16:00,60.6,60.6,29.94,SSE,156,0.0,0.0,100,0.00,,SKC,0.00,VWS V13.01,2013-01-11 08:16:00,
2013-01-11 02:17:00,60.6,60.6,29.94,SSE,156,0.0,0.0,100,0.00,,SKC,0.00,VWS V13.01,2013-01-11 08:17:00,
2013-01-11 02:18:00,60.6,60.6,29.94,SE,142,0.0,0.0,100,0.00,,SKC,0.00,VWS V13.01,2013-01-11 08:18:00,
2013-01-11 02:19:00,60.8,60.8,29.94,SE,129,0.0,0.0,100,0.00,,SKC,0.00,VWS V13.01,2013-01-11 08:19:00,
2013-01-11 02:20:00,60.8,60.8,29.94,SE,129,0.0,0.0,100,0.00,,SKC,0.00,VWS V13.01,2013-01-11 08:20:00,
2013-01-11 02:21:00,60.8,60.8,29.94,SE,129,0.0,0.0,100,0.00,,SKC,0.00,VWS V13.01,2013-01-11 08:21:00,
2013-01-11 02:22:00,60.8,60.8,29.94,SE,129,0.0,0.0,100,0.00,,SKC,0.00,VWS V13.01,2013-01-11 08:22:00,
2013-01-11 02:23:00,60.8,60.8,29.94,SE,129,0.0,0.0,100,0.00,,SKC,0.00,VWS V13.01,2013-01-11 08:23:00,
2013-01-11 02:24:00,60.8,60.8,29.94,SE,129,0.0,0.0,100,0.00,,SKC,0.00,VWS V13.01,2013-01-11 08:24:00,
2013-01-11 02:25:00,60.8,60.8,29.94,SE,128,0.0,0.0,100,0.00,,SKC,0.00,VWS V13.01,2013-01-11 08:25:00,
2013-01-11 02:26:00,61.0,61.0,29.94,SE,128,0.0,0.0,100,0.00,,SKC,0.00,VWS V13.01,2013-01-11 08:26:00,
2013-01-11 02:27:00,61.0,61.0,29.94,SE,128,0.0,0.0,100,0.00,,SKC,0.00,VWS V13.01,2013-01-11 08:27:00,
2013-01-11 02:28:00,61.0,61.0,29.94,SE,128,0.0,0.0,100,0.00,,SKC,0.00,VWS V13.01,2013-01-11 08:28:00,
2013-01-11 02:29:00,61.0,61.0,29.94,SE,128,0.0,0.0,100,0.00,,SKC,0.00,VWS V13.01,2013-01-11 08:29:00,
2013-01-11 02:30:00,61.0,61.0,29.94,SE,128,0.0,0.0,100,0.00,,SKC,0.00,VWS V13.01,2013-01-11 08:30:00,
2013-01-11 02:31:00,61.0,61.0,29.94,SE,128,0.0,0.0,100,0.00,,SKC,0.00,VWS V13.01,2013-01-11 08:31:00,
2013-01-11 02:32:00,61.0,61.0,29.94,SE,128,0.0,0.0,100,0.00,,SKC,0.00,VWS V13.01,2013-01-11 08:32:00,
2013-01-11 02:33:00,61.0,61.0,29.94,SE,128,0.0,0.0,100,0.00,,SKC,0.00,VWS V13.01,2013-01-11 08:33:00,
2013-01-11 02:34:00,61.0,61.0,29.94,East,91,2.2,3.1,100,0.00,,SKC,0.00,VWS V13.01,2013-01-11 08:34:00,
2013-01-11 02:35:00,61.0,61.0,29.94,East,91,0.0,2.2,100,0.00,,SKC,0.00,VWS V13.01,2013-01-11 08:35:00,
2013-01-11 02:36:00,61.0,61.0,29.94,East,91,0.0,0.0,100,0.00,,SKC,0.00,VWS V13.01,2013-01-11 08:36:00,
2013-01-11 02:37:00,61.0,61.0,29.94,East,91,2.7,2.7,100,0.00,,SKC,0.00,VWS V13.01,2013-01-11 08:37:00,
2013-01-11 02:38:00,61.0,61.0,29.94,East,91,2.7,2.7,100,0.00,,SKC,0.00,VWS V13.01,2013-01-11 08:38:00,
2013-01-11 02:39:00,61.0,61.0,29.94,East,98,0.0,0.0,100,0.00,,SKC,0.00,VWS V13.01,2013-01-11 08:39:00,
2013-01-11 02:40:00,61.0,61.0,29.94,East,98,0.0,0.0,100,0.00,,SKC,0.00,VWS V13.01,2013-01-11 08:40:00,
2013-01-11 02:41:00,61.0,61.0,29.94,SE,137,0.0,0.0,100,0.00,,SKC,0.00,VWS V13.01,2013-01-11 08:41:00,
2013-01-11 02:42:00,61.0,61.0,29.94,ESE,120,0.0,0.0,100,0.00,,SKC,0.00,VWS V13.01,2013-01-11 08:42:00,
2013-01-11 02:43:00,61.0,61.0,29.94,ESE,120,0.0,0.0,100,0.00,,SKC,0.00,VWS V13.01,2013-01-11 08:43:00,
2013-01-11 02:44:00,61.0,61.0,29.94,SSE,158,3.1,3.6,100,0.00,,SKC,0.00,VWS V13.01,2013-01-11 08:44:00,
2013-01-11 02:45:00,61.0,61.0,29.94,SSE,147,2.7,4.0,100,0.00,,SKC,0.00,VWS V13.01,2013-01-11 08:45:00,
2013-01-11 02:46:00,61.0,61.0,29.94,SSW,195,4.0,5.8,100,0.00,,SKC,0.00,VWS V13.01,2013-01-11 08:46:00,
2013-01-11 02:47:00,61.0,61.0,29.94,SSW,203,0.0,4.0,100,0.00,,SKC,0.00,VWS V13.01,2013-01-11 08:47:00,
2013-01-11 02:48:00,61.0,61.0,29.94,SSW,203,0.0,0.0,100,0.00,,SKC,0.00,VWS V13.01,2013-01-11 08:48:00,
2013-01-11 02:49:00,61.0,61.0,29.94,ESE,117,4.0,5.4,100,0.00,,SKC,0.00,VWS V13.01,2013-01-11 08:49:00,
2013-01-11 02:50:00,61.1,61.1,29.94,South,176,3.6,4.9,100,0.00,,SKC,0.00,VWS V13.01,2013-01-11 08:50:00,
2013-01-11 02:51:00,61.1,61.1,29.94,SE,137,3.6,4.9,100,0.00,,SKC,0.00,VWS V13.01,2013-01-11 08:51:00,
2013-01-11 02:52:00,61.1,61.1,29.94,SSW,194,0.0,5.8,100,0.00,,SKC,0.00,VWS V13.01,2013-01-11 08:52:00,
2013-01-11 02:53:00,61.1,61.1,29.94,SSW,194,0.0,5.8,100,0.00,,SKC,0.00,VWS V13.01,2013-01-11 08:53:00,
2013-01-11 02:54:00,61.1,61.1,29.94,SSE,161,4.0,5.4,100,0.00,,SKC,0.00,VWS V13.01,2013-01-11 08:54:00,
2013-01-11 02:55:00,61.1,61.1,29.94,South,173,0.0,4.0,100,0.00,,SKC,0.00,VWS V13.01,2013-01-11 08:55:00,
2013-01-11 02:56:00,61.1,61.1,29.94,South,184,3.6,3.6,100,0.00,,SKC,0.00,VWS V13.01,2013-01-11 08:56:00,
2013-01-11 02:57:00,61.1,61.1,29.94,SSE,151,3.1,3.6,100,0.00,,SKC,0.00,VWS V13.01,2013-01-11 08:57:00,
2013-01-11 02:58:00,61.1,61.1,29.94,South,172,2.7,3.1,100,0.00,,SKC,0.00,VWS V13.01,2013-01-11 08:58:00,
2013-01-11 02:59:00,61.1,61.1,29.94,SSE,168,2.7,3.1,100,0.00,,SKC,0.00,VWS V13.01,2013-01-11 08:59:00,
2013-01-11 03:00:00,61.1,61.1,29.94,SSE,160,4.9,4.9,100,0.00,,SKC,0.00,VWS V13.01,2013-01-11 09:00:00,
2013-01-11 03:01:00,61.1,61.1,29.94,South,188,4.0,4.9,100,0.00,,SKC,0.00,VWS V13.01,2013-01-11 09:01:00,
2013-01-11 03:02:00,61.1,61.1,29.94,SSE,154,4.9,4.9,100,0.00,,SKC,0.00,VWS V13.01,2013-01-11 09:02:00,
2013-01-11 03:03:00,61.1,61.1,29.94,SSE,154,4.9,4.9,100,0.00,,SKC,0.00,VWS V13.01,2013-01-11 09:03:00,
2013-01-11 03:04:00,61.1,61.1,29.94,SSE,164,2.2,3.6,100,0.00,,SKC,0.00,VWS V13.01,2013-01-11 09:04:00,
2013-01-11 03:05:00,61.1,61.1,29.94,SSE,168,3.1,3.1,100,0.00,,SKC,0.00,VWS V13.01,2013-01-11 09:05:00,
2013-01-11 03:06:00,61.1,61.1,29.94,SSE,152,3.6,4.0,100,0.00,,SKC,0.00,VWS V13.01,2013-01-11 09:06:00,
2013-01-11 03:07:00,61.1,61.1,29.94,SSE,149,2.7,2.7,100,0.00,,SKC,0.00,VWS V13.01,2013-01-11 09:07:00,
2013-01-11 03:08:00,61.1,61.1,29.94,South,177,3.1,5.4,100,0.00,,SKC,0.00,VWS V13.01,2013-01-11 09:08:00,
2013-01-11 03:09:00,61.1,61.1,29.94,SSE,162,3.1,3.6,100,0.00,,SKC,0.00,VWS V13.01,2013-01-11 09:09:00,
2013-01-11 03:10:00,61.1,61.1,29.94,South,171,2.7,3.6,100,0.00,,SKC,0.00,VWS V13.01,2013-01-11 09:10:00,
2013-01-11 03:11:00,61.1,61.1,29.94,South,171,2.7,2.7,100,0.00,,SKC,0.00,VWS V13.01,2013-01-11 09:11:00,
2013-01-11 03:12:00,61.1,61.1,29.94,South,171,0.0,2.7,100,0.00,,SKC,0.00,VWS V13.01,2013-01-11 09:12:00,
2013-01-11 03:13:00,61.1,61.1,29.94,South,171,0.0,0.0,100,0.00,,SKC,0.00,VWS V13.01,2013-01-11 09:13:00,
2013-01-11 03:14:00,61.1,61.1,29.94,South,171,0.0,0.0,100,0.00,,SKC,0.00,VWS V13.01,2013-01-11 09:14:00,
2013-01-11 03:15:00,61.1,61.1,29.94,South,171,0.0,0.0,100,0.00,,SKC,0.00,VWS V13.01,2013-01-11 09:15:00,
2013-01-11 03:16:00,61.1,61.1,29.94,South,171,0.0,0.0,100,0.00,,SKC,0.00,VWS V13.01,2013-01-11 09:16:00,
2013-01-11 03:17:00,61.1,61.1,29.94,SSE,163,2.7,2.7,100,0.00,,SKC,0.00,VWS V13.01,2013-01-11 09:17:00,
2013-01-11 03:18:00,61.1,61.1,29.94,SSE,163,0.0,2.7,100,0.00,,SKC,0.00,VWS V13.01,2013-01-11 09:18:00,
2013-01-11 03:19:00,61.1,61.1,29.94,SSE,162,2.7,2.7,100,0.00,,SKC,0.00,VWS V13.01,2013-01-11 09:19:00,
2013-01-11 03:20:00,61.1,61.1,29.94,SSE,154,0.0,3.1,100,0.00,,SKC,0.00,VWS V13.01,2013-01-11 09:20:00,
2013-01-11 03:21:00,61.1,61.1,29.94,SSE,154,0.0,0.0,100,0.00,,SKC,0.00,VWS V13.01,2013-01-11 09:21:00,
2013-01-11 03:22:00,61.1,61.1,29.94,SSE,168,2.2,2.2,100,0.00,,SKC,0.00,VWS V13.01,2013-01-11 09:22:00,
2013-01-11 03:23:00,61.1,61.1,29.94,SSE,154,2.7,2.7,100,0.00,,SKC,0.00,VWS V13.01,2013-01-11 09:23:00,
2013-01-11 03:24:00,61.1,61.1,29.94,SSE,155,3.1,3.1,100,0.00,,SKC,0.00,VWS V13.01,2013-01-11 09:24:00,
2013-01-11 03:25:00,61.1,61.1,29.94,SE,134,0.0,3.6,100,0.00,,SKC,0.00,VWS V13.01,2013-01-11 09:25:00,
2013-01-11 03:26:00,61.0,61.0,29.94,SE,134,0.0,0.0,100,0.00,,SKC,0.00,VWS V13.01,2013-01-11 09:26:00,
2013-01-11 03:27:00,61.0,61.0,29.94,SE,145,0.0,0.0,100,0.00,,SKC,0.00,VWS V13.01,2013-01-11 09:27:00,
2013-01-11 03:28:00,61.0,61.0,29.94,South,182,0.0,2.7,100,0.00,,SKC,0.00,VWS V13.01,2013-01-11 09:28:00,
2013-01-11 03:29:00,61.0,61.0,29.94,South,182,0.0,0.0,100,0.00,,SKC,0.00,VWS V13.01,2013-01-11 09:29:00,
2013-01-11 03:30:00,61.0,61.0,29.94,SSE,161,0.0,0.0,100,0.00,,SKC,0.00,VWS V13.01,2013-01-11 09:30:00,
2013-01-11 03:31:00,61.0,61.0,29.94,SSE,161,0.0,0.0,100,0.00,,SKC,0.00,VWS V13.01,2013-01-11 09:31:00,
2013-01-11 03:32:00,61.0,61.0,29.94,SSE,161,0.0,0.0,100,0.00,,SKC,0.00,VWS V13.01,2013-01-11 09:32:00,
2013-01-11 03:33:00,61.0,61.0,29.94,SE,130,2.7,2.7,100,0.00,,SKC,0.00,VWS V13.01,2013-01-11 09:33:00,
2013-01-11 03:34:00,61.0,61.0,29.94,SE,136,0.0,2.7,100,0.00,,SKC,0.00,VWS V13.01,2013-01-11 09:34:00,
2013-01-11 03:35:00,61.0,61.0,29.94,SE,137,0.0,2.2,100,0.00,,SKC,0.00,VWS V13.01,2013-01-11 09:35:00,
2013-01-11 03:36:00,61.0,61.0,29.94,SE,137,0.0,0.0,100,0.00,,SKC,0.00,VWS V13.01,2013-01-11 09:36:00,
2013-01-11 03:37:00,61.0,61.0,29.94,SE,137,0.0,0.0,100,0.00,,SKC,0.00,VWS V13.01,2013-01-11 09:37:00,
2013-01-11 03:38:00,61.0,61.0,29.94,SE,137,0.0,0.0,100,0.00,,SKC,0.00,VWS V13.01,2013-01-11 09:38:00,
2013-01-11 03:39:00,61.0,61.0,29.94,SE,137,0.0,0.0,100,0.00,,SKC,0.00,VWS V13.01,2013-01-11 09:39:00,
2013-01-11 03:40:00,61.0,61.0,29.94,SE,144,4.0,4.0,100,0.00,,SKC,0.00,VWS V13.01,2013-01-11 09:40:00,
2013-01-11 03:41:00,61.0,61.0,29.94,SSE,156,0.0,4.0,100,0.00,,SKC,0.00,VWS V13.01,2013-01-11 09:41:00,
2013-01-11 03:42:00,61.0,61.0,29.91,SSE,157,0.0,0.0,100,0.00,,SKC,0.00,VWS V13.01,2013-01-11 09:42:00,
2013-01-11 03:43:00,61.0,61.0,29.91,SSE,156,0.0,0.0,100,0.00,,SKC,0.00,VWS V13.01,2013-01-11 09:43:00,
2013-01-11 03:44:00,61.0,61.0,29.91,SSE,156,0.0,0.0,100,0.00,,SKC,0.00,VWS V13.01,2013-01-11 09:44:00,
2013-01-11 03:45:00,61.0,61.0,29.91,SSE,157,0.0,0.0,100,0.00,,SKC,0.00,VWS V13.01,2013-01-11 09:45:00,
2013-01-11 03:46:00,61.0,61.0,29.91,SSE,157,0.0,0.0,100,0.00,,SKC,0.00,VWS V13.01,2013-01-11 09:46:00,
2013-01-11 03:47:00,61.0,61.0,29.91,SSE,156,0.0,0.0,100,0.00,,SKC,0.00,VWS V13.01,2013-01-11 09:47:00,
2013-01-11 03:48:00,61.0,61.0,29.91,SSE,157,0.0,0.0,100,0.00,,SKC,0.00,VWS V13.01,2013-01-11 09:48:00,
2013-01-11 03:49:00,61.0,61.0,29.91,SSE,156,0.0,0.0,100,0.00,,SKC,0.00,VWS V13.01,2013-01-11 09:49:00,
2013-01-11 03:50:00,60.8,60.8,29.91,SSE,157,0.0,0.0,100,0.00,,SKC,0.00,VWS V13.01,2013-01-11 09:50:00,
2013-01-11 03:51:00,60.8,60.8,29.91,SSE,156,0.0,0.0,100,0.00,,SKC,0.00,VWS V13.01,2013-01-11 09:51:00,
2013-01-11 03:52:00,60.8,60.8,29.91,SSE,156,0.0,0.0,100,0.00,,SKC,0.00,VWS V13.01,2013-01-11 09:52:00,
2013-01-11 03:53:00,60.8,60.8,29.91,SSE,157,0.0,0.0,100,0.00,,SKC,0.00,VWS V13.01,2013-01-11 09:53:00,
2013-01-11 03:54:00,60.8,60.8,29.91,SSE,156,0.0,0.0,100,0.00,,SKC,0.00,VWS V13.01,2013-01-11 09:54:00,
2013-01-11 03:55:00,60.8,60.8,29.91,SSE,157,0.0,0.0,100,0.00,,SKC,0.00,VWS V13.01,2013-01-11 09:55:00,
2013-01-11 03:56:00,60.8,60.8,29.91,SSE,156,0.0,0.0,100,0.00,,SKC,0.00,VWS V13.01,2013-01-11 09:56:00,
2013-01-11 03:57:00,60.8,60.8,29.91,SSE,156,0.0,0.0,100,0.00,,SKC,0.00,VWS V13.01,2013-01-11 09:57:00,
2013-01-11 03:58:00,60.8,60.8,29.94,SSE,156,0.0,0.0,100,0.00,,SKC,0.00,VWS V13.01,2013-01-11 09:58:00,
2013-01-11 03:59:00,60.8,60.8,29.94,SSE,157,0.0,0.0,100,0.00,,SKC,0.00,VWS V13.01,2013-01-11 09:59:00,
2013-01-11 04:00:00,60.8,60.8,29.94,SSE,157,0.0,0.0,100,0.00,,SKC,0.00,VWS V13.01,2013-01-11 10:00:00,
2013-01-11 04:01:00,60.8,60.8,29.94,SSE,157,0.0,0.0,100,0.00,,SKC,0.00,VWS V13.01,2013-01-11 10:01:00,
2013-01-11 04:02:00,60.8,60.8,29.94,SSE,157,0.0,0.0,100,0.00,,SKC,0.00,VWS V13.01,2013-01-11 10:02:00,
2013-01-11 04:03:00,60.8,60.8,29.94,SSE,156,0.0,2.2,100,0.00,,SKC,0.00,VWS V13.01,2013-01-11 10:03:00,
2013-01-11 04:04:00,60.8,60.8,29.94,SSE,166,0.0,0.0,100,0.00,,SKC,0.00,VWS V13.01,2013-01-11 10:04:00,
2013-01-11 04:05:00,60.8,60.8,29.94,SSE,155,0.0,3.6,100,0.00,,SKC,0.00,VWS V13.01,2013-01-11 10:05:00,
2013-01-11 04:06:00,60.8,60.8,29.94,SSE,155,0.0,2.2,100,0.00,,SKC,0.00,VWS V13.01,2013-01-11 10:06:00,
2013-01-11 04:07:00,60.8,60.8,29.94,SSE,155,0.0,0.0,100,0.00,,SKC,0.00,VWS V13.01,2013-01-11 10:07:00,
2013-01-11 04:08:00,60.8,60.8,29.94,SSE,155,0.0,0.0,100,0.00,,SKC,0.00,VWS V13.01,2013-01-11 10:08:00,
2013-01-11 04:09:00,60.8,60.8,29.94,SSE,155,0.0,0.0,100,0.00,,SKC,0.00,VWS V13.01,2013-01-11 10:09:00,
2013-01-11 04:10:00,60.8,60.8,29.94,SSE,155,0.0,0.0,100,0.00,,SKC,0.00,VWS V13.01,2013-01-11 10:10:00,
2013-01-11 04:11:00,60.8,60.8,29.94,SSE,155,0.0,0.0,100,0.00,,SKC,0.00,VWS V13.01,2013-01-11 10:11:00,
2013-01-11 04:12:00,61.0,61.0,29.94,SSE,155,0.0,0.0,100,0.00,,SKC,0.00,VWS V13.01,2013-01-11 10:12:00,
2013-01-11 04:13:00,61.0,61.0,29.94,SSE,155,0.0,0.0,100,0.00,,SKC,0.00,VWS V13.01,2013-01-11 10:13:00,
2013-01-11 04:14:00,61.0,61.0,29.94,SSE,155,0.0,0.0,100,0.00,,SKC,0.00,VWS V13.01,2013-01-11 10:14:00,
2013-01-11 04:15:00,61.0,61.0,29.94,SSE,155,0.0,0.0,100,0.00,,SKC,0.00,VWS V13.01,2013-01-11 10:15:00,
2013-01-11 04:16:00,61.0,61.0,29.94,SSE,155,0.0,0.0,100,0.00,,SKC,0.00,VWS V13.01,2013-01-11 10:16:00,
2013-01-11 04:17:00,61.0,61.0,29.94,SSE,155,0.0,0.0,100,0.00,,SKC,0.00,VWS V13.01,2013-01-11 10:17:00,
2013-01-11 04:18:00,61.0,61.0,29.94,SSE,155,0.0,0.0,100,0.00,,SKC,0.00,VWS V13.01,2013-01-11 10:18:00,
2013-01-11 04:19:00,61.0,61.0,29.94,SSE,155,0.0,0.0,100,0.00,,SKC,0.00,VWS V13.01,2013-01-11 10:19:00,
2013-01-11 04:20:00,61.0,61.0,29.94,SE,124,0.0,3.1,100,0.00,,SKC,0.00,VWS V13.01,2013-01-11 10:20:00,
2013-01-11 04:21:00,61.0,61.0,29.94,SE,140,0.0,3.1,100,0.00,,SKC,0.00,VWS V13.01,2013-01-11 10:21:00,
2013-01-11 04:22:00,61.0,61.0,29.94,SE,140,0.0,0.0,100,0.00,,SKC,0.00,VWS V13.01,2013-01-11 10:22:00,
2013-01-11 04:23:00,61.0,61.0,29.94,SSE,154,2.2,2.2,100,0.00,,SKC,0.00,VWS V13.01,2013-01-11 10:23:00,
2013-01-11 04:24:00,61.0,61.0,29.94,SSE,154,0.0,2.2,100,0.00,,SKC,0.00,VWS V13.01,2013-01-11 10:24:00,
2013-01-11 04:25:00,61.0,61.0,29.94,SSE,154,0.0,0.0,100,0.00,,SKC,0.00,VWS V13.01,2013-01-11 10:25:00,
2013-01-11 04:26:00,61.0,61.0,29.94,SSE,154,0.0,0.0,100,0.00,,SKC,0.00,VWS V13.01,2013-01-11 10:26:00,
2013-01-11 04:27:00,61.0,61.0,29.94,SSE,154,0.0,3.1,100,0.00,,SKC,0.00,VWS V13.01,2013-01-11 10:27:00,
2013-01-11 04:28:00,61.0,61.0,29.94,SSE,154,0.0,0.0,100,0.00,,SKC,0.00,VWS V13.01,2013-01-11 10:28:00,
2013-01-11 04:29:00,61.0,61.0,29.94,SSE,154,0.0,0.0,100,0.00,,SKC,0.00,VWS V13.01,2013-01-11 10:29:00,
2013-01-11 04:30:00,61.0,61.0,29.94,SSE,154,0.0,0.0,100,0.00,,SKC,0.00,VWS V13.01,2013-01-11 10:30:00,
2013-01-11 04:31:00,61.0,61.0,29.94,SSE,154,0.0,0.0,100,0.00,,SKC,0.00,VWS V13.01,2013-01-11 10:31:00,
2013-01-11 04:32:00,61.0,61.0,29.94,SSE,154,2.7,2.7,100,0.00,,SKC,0.00,VWS V13.01,2013-01-11 10:32:00,
2013-01-11 04:33:00,61.0,61.0,29.94,South,173,0.0,3.1,100,0.00,,SKC,0.00,VWS V13.01,2013-01-11 10:33:00,
2013-01-11 04:34:00,61.0,61.0,29.94,South,171,0.0,0.0,100,0.00,,SKC,0.00,VWS V13.01,2013-01-11 10:34:00,
2013-01-11 04:35:00,61.0,61.0,29.94,ESE,120,0.0,0.0,100,0.00,,SKC,0.00,VWS V13.01,2013-01-11 10:35:00,
2013-01-11 04:36:00,61.0,61.0,29.94,SE,145,0.0,0.0,100,0.00,,SKC,0.00,VWS V13.01,2013-01-11 10:36:00,
2013-01-11 04:37:00,61.0,61.0,29.94,SE,145,0.0,0.0,100,0.00,,SKC,0.00,VWS V13.01,2013-01-11 10:37:00,
2013-01-11 04:38:00,61.0,61.0,29.94,SE,141,2.7,3.6,100,0.00,,SKC,0.00,VWS V13.01,2013-01-11 10:38:00,
2013-01-11 04:39:00,61.0,61.0,29.94,SE,141,0.0,2.7,100,0.00,,SKC,0.00,VWS V13.01,2013-01-11 10:39:00,
2013-01-11 04:40:00,61.0,61.0,29.94,SE,141,0.0,0.0,100,0.00,,SKC,0.00,VWS V13.01,2013-01-11 10:40:00,
2013-01-11 04:41:00,61.0,61.0,29.94,SSE,157,3.1,3.1,100,0.00,,SKC,0.00,VWS V13.01,2013-01-11 10:41:00,
2013-01-11 04:42:00,61.0,61.0,29.94,SSE,157,0.0,3.1,100,0.00,,SKC,0.00,VWS V13.01,2013-01-11 10:42:00,
2013-01-11 04:43:00,61.0,61.0,29.91,SSE,157,0.0,0.0,100,0.00,,SKC,0.00,VWS V13.01,2013-01-11 10:43:00,
2013-01-11 04:44:00,61.0,61.0,29.91,SSE,156,0.0,0.0,100,0.00,,SKC,0.00,VWS V13.01,2013-01-11 10:44:00,
2013-01-11 04:45:00,61.0,61.0,29.91,SE,135,0.0,3.6,100,0.00,,SKC,0.00,VWS V13.01,2013-01-11 10:45:00,
2013-01-11 04:46:00,61.0,61.0,29.91,SE,135,0.0,0.0,100,0.00,,SKC,0.00,VWS V13.01,2013-01-11 10:46:00,
2013-01-11 04:47:00,61.0,61.0,29.91,South,184,3.1,3.1,100,0.00,,SKC,0.00,VWS V13.01,2013-01-11 10:47:00,
2013-01-11 04:48:00,61.0,61.0,29.91,SE,144,0.0,3.1,100,0.00,,SKC,0.00,VWS V13.01,2013-01-11 10:48:00,
2013-01-11 04:49:00,61.0,61.0,29.91,SE,144,0.0,0.0,100,0.00,,SKC,0.00,VWS V13.01,2013-01-11 10:49:00,
2013-01-11 04:50:00,61.0,61.0,29.91,SSE,159,0.0,0.0,100,0.00,,SKC,0.00,VWS V13.01,2013-01-11 10:50:00,
2013-01-11 04:51:00,61.0,61.0,29.91,SSE,159,0.0,0.0,100,0.00,,SKC,0.00,VWS V13.01,2013-01-11 10:51:00,
2013-01-11 04:52:00,61.0,61.0,29.91,SSE,159,0.0,0.0,100,0.00,,SKC,0.00,VWS V13.01,2013-01-11 10:52:00,
2013-01-11 04:53:00,61.0,61.0,29.91,South,174,0.0,0.0,100,0.00,,SKC,0.00,VWS V13.01,2013-01-11 10:53:00,
2013-01-11 04:54:00,61.0,61.0,29.91,SSE,161,0.0,2.2,100,0.00,,SKC,0.00,VWS V13.01,2013-01-11 10:54:00,
2013-01-11 04:55:00,61.0,61.0,29.91,SSE,161,0.0,0.0,100,0.00,,SKC,0.00,VWS V13.01,2013-01-11 10:55:00,
2013-01-11 04:56:00,61.0,61.0,29.91,SSE,161,0.0,0.0,100,0.00,,SKC,0.00,VWS V13.01,2013-01-11 10:56:00,
2013-01-11 04:57:00,61.0,61.0,29.94,SSE,161,0.0,0.0,100,0.00,,SKC,0.00,VWS V13.01,2013-01-11 10:57:00,
2013-01-11 04:58:00,61.0,61.0,29.94,SSE,161,0.0,0.0,100,0.00,,SKC,0.00,VWS V13.01,2013-01-11 10:58:00,
2013-01-11 04:59:00,60.8,60.8,29.94,SSE,154,4.0,4.0,100,0.00,,SKC,0.00,VWS V13.01,2013-01-11 10:59:00,
2013-01-11 05:00:00,60.8,60.8,29.94,SE,140,0.0,4.0,100,0.00,,SKC,0.00,VWS V13.01,2013-01-11 11:00:00,
2013-01-11 05:01:00,60.8,60.8,29.94,SSE,159,0.0,2.7,100,0.00,,SKC,0.00,VWS V13.01,2013-01-11 11:01:00,
2013-01-11 05:02:00,60.8,60.8,29.94,SSE,159,3.1,3.1,100,0.00,,SKC,0.00,VWS V13.01,2013-01-11 11:02:00,
2013-01-11 05:03:00,60.8,60.8,29.94,South,169,0.0,3.6,100,0.00,,SKC,0.00,VWS V13.01,2013-01-11 11:03:00,
2013-01-11 05:04:00,60.8,60.8,29.94,SSE,153,0.0,2.7,100,0.00,,SKC,0.00,VWS V13.01,2013-01-11 11:04:00,
2013-01-11 05:05:00,60.8,60.8,29.94,SSE,159,3.6,3.6,100,0.00,,SKC,0.00,VWS V13.01,2013-01-11 11:05:00,
2013-01-11 05:06:00,60.8,60.8,29.94,South,172,0.0,3.6,100,0.00,,SKC,0.00,VWS V13.01,2013-01-11 11:06:00,
2013-01-11 05:07:00,60.8,60.8,29.94,South,170,2.7,2.7,100,0.00,,SKC,0.00,VWS V13.01,2013-01-11 11:07:00,
2013-01-11 05:08:00,60.8,60.8,29.94,SSE,162,2.2,2.7,100,0.00,,SKC,0.00,VWS V13.01,2013-01-11 11:08:00,
2013-01-11 05:09:00,60.8,60.8,29.94,South,180,2.7,4.0,100,0.00,,SKC,0.00,VWS V13.01,2013-01-11 11:09:00,
2013-01-11 05:10:00,60.8,60.8,29.94,South,181,0.0,2.7,100,0.00,,SKC,0.00,VWS V13.01,2013-01-11 11:10:00,
2013-01-11 05:11:00,60.8,60.8,29.94,South,176,0.0,2.2,100,0.00,,SKC,0.00,VWS V13.01,2013-01-11 11:11:00,
2013-01-11 05:12:00,60.8,60.8,29.94,South,176,0.0,0.0,100,0.00,,SKC,0.00,VWS V13.01,2013-01-11 11:12:00,
2013-01-11 05:13:00,60.8,60.8,29.94,South,176,0.0,0.0,100,0.00,,SKC,0.00,VWS V13.01,2013-01-11 11:13:00,
2013-01-11 05:14:00,60.8,60.8,29.94,South,176,0.0,0.0,100,0.00,,SKC,0.00,VWS V13.01,2013-01-11 11:14:00,
2013-01-11 05:15:00,60.8,60.8,29.94,South,176,0.0,0.0,100,0.00,,SKC,0.00,VWS V13.01,2013-01-11 11:15:00,
2013-01-11 05:16:00,60.8,60.8,29.94,SSE,162,0.0,0.0,100,0.00,,SKC,0.00,VWS V13.01,2013-01-11 11:16:00,
2013-01-11 05:17:00,60.6,60.6,29.94,SSE,151,0.0,0.0,100,0.00,,SKC,0.00,VWS V13.01,2013-01-11 11:17:00,
2013-01-11 05:18:00,60.8,60.8,29.94,SSE,152,0.0,0.0,100,0.00,,SKC,0.00,VWS V13.01,2013-01-11 11:18:00,
2013-01-11 05:19:00,60.8,60.8,29.94,SSE,152,0.0,0.0,100,0.00,,SKC,0.00,VWS V13.01,2013-01-11 11:19:00,
2013-01-11 05:20:00,60.8,60.8,29.94,SSE,160,0.0,0.0,100,0.00,,SKC,0.00,VWS V13.01,2013-01-11 11:20:00,
2013-01-11 05:21:00,60.8,60.8,29.94,SSE,160,0.0,0.0,100,0.00,,SKC,0.00,VWS V13.01,2013-01-11 11:21:00,
2013-01-11 05:22:00,60.8,60.8,29.94,SSE,160,0.0,0.0,100,0.00,,SKC,0.00,VWS V13.01,2013-01-11 11:22:00,
2013-01-11 05:23:00,60.8,60.8,29.94,SE,145,0.0,0.0,100,0.00,,SKC,0.00,VWS V13.01,2013-01-11 11:23:00,
2013-01-11 05:24:00,60.8,60.8,29.94,SSE,155,0.0,0.0,100,0.00,,SKC,0.00,VWS V13.01,2013-01-11 11:24:00,
2013-01-11 05:25:00,60.8,60.8,29.94,SSE,158,0.0,0.0,100,0.00,,SKC,0.00,VWS V13.01,2013-01-11 11:25:00,
2013-01-11 05:26:00,60.8,60.8,29.94,SSE,158,0.0,2.2,100,0.00,,SKC,0.00,VWS V13.01,2013-01-11 11:26:00,
2013-01-11 05:27:00,60.8,60.8,29.94,SE,143,0.0,0.0,100,0.00,,SKC,0.00,VWS V13.01,2013-01-11 11:27:00,
2013-01-11 05:28:00,60.8,60.8,29.94,SSE,166,2.2,4.0,100,0.00,,SKC,0.00,VWS V13.01,2013-01-11 11:28:00,
2013-01-11 05:29:00,60.8,60.8,29.94,SSE,162,3.1,3.1,100,0.00,,SKC,0.00,VWS V13.01,2013-01-11 11:29:00,
2013-01-11 05:30:00,60.8,60.8,29.94,South,176,0.0,3.1,100,0.00,,SKC,0.00,VWS V13.01,2013-01-11 11:30:00,
2013-01-11 05:31:00,60.8,60.8,29.94,SE,128,2.2,2.2,100,0.00,,SKC,0.00,VWS V13.01,2013-01-11 11:31:00,
2013-01-11 05:32:00,60.8,60.8,29.94,SE,133,0.0,2.2,100,0.00,,SKC,0.00,VWS V13.01,2013-01-11 11:32:00,
2013-01-11 05:33:00,60.8,60.8,29.94,South,173,3.6,3.6,100,0.00,,SKC,0.00,VWS V13.01,2013-01-11 11:33:00,
2013-01-11 05:34:00,60.8,60.8,29.94,SSE,168,3.6,3.6,100,0.00,,SKC,0.00,VWS V13.01,2013-01-11 11:34:00,
2013-01-11 05:35:00,60.8,60.8,29.94,SSE,155,3.1,3.6,100,0.00,,SKC,0.00,VWS V13.01,2013-01-11 11:35:00,
2013-01-11 05:36:00,60.8,60.8,29.94,SSE,163,2.2,3.1,100,0.00,,SKC,0.00,VWS V13.01,2013-01-11 11:36:00,
2013-01-11 05:37:00,60.8,60.8,29.94,SSE,164,3.1,4.0,100,0.00,,SKC,0.00,VWS V13.01,2013-01-11 11:37:00,
2013-01-11 05:38:00,60.8,60.8,29.94,South,174,2.2,4.0,100,0.00,,SKC,0.00,VWS V13.01,2013-01-11 11:38:00,
2013-01-11 05:39:00,60.8,60.8,29.94,South,177,2.2,2.7,100,0.00,,SKC,0.00,VWS V13.01,2013-01-11 11:39:00,
2013-01-11 05:40:00,60.8,60.8,29.94,South,177,0.0,2.2,100,0.00,,SKC,0.00,VWS V13.01,2013-01-11 11:40:00,
2013-01-11 05:41:00,60.8,60.8,29.94,SSW,194,4.0,4.0,100,0.00,,SKC,0.00,VWS V13.01,2013-01-11 11:41:00,
2013-01-11 05:42:00,60.8,60.8,29.94,South,172,4.0,4.0,100,0.00,,SKC,0.00,VWS V13.01,2013-01-11 11:42:00,
2013-01-11 05:43:00,60.8,60.8,29.94,SSE,165,3.1,4.0,100,0.00,,SKC,0.00,VWS V13.01,2013-01-11 11:43:00,
2013-01-11 05:44:00,61.0,61.0,29.94,South,170,2.2,4.0,100,0.00,,SKC,0.00,VWS V13.01,2013-01-11 11:44:00,
2013-01-11 05:45:00,61.0,61.0,29.94,SSW,205,3.1,4.0,100,0.00,,SKC,0.00,VWS V13.01,2013-01-11 11:45:00,
2013-01-11 05:46:00,61.0,61.0,29.94,SSE,161,4.0,5.4,100,0.00,,SKC,0.00,VWS V13.01,2013-01-11 11:46:00,
2013-01-11 05:47:00,61.0,61.0,29.94,South,176,2.7,4.0,100,0.00,,SKC,0.00,VWS V13.01,2013-01-11 11:47:00,
2013-01-11 05:48:00,61.0,61.0,29.94,South,174,5.4,5.4,100,0.00,,SKC,0.00,VWS V13.01,2013-01-11 11:48:00,
2013-01-11 05:49:00,61.0,61.0,29.94,SE,128,0.0,5.8,100,0.00,,SKC,0.00,VWS V13.01,2013-01-11 11:49:00,
2013-01-11 05:50:00,60.8,60.8,29.94,SSE,153,4.0,5.8,100,0.00,,SKC,0.00,VWS V13.01,2013-01-11 11:50:00,
2013-01-11 05:51:00,60.8,60.8,29.94,SSE,159,2.7,5.4,100,0.00,,SKC,0.00,VWS V13.01,2013-01-11 11:51:00,
2013-01-11 05:52:00,60.8,60.8,29.94,South,188,0.0,3.1,100,0.00,,SKC,0.00,VWS V13.01,2013-01-11 11:52:00,
2013-01-11 05:53:00,60.8,60.8,29.94,SSW,195,0.0,2.7,100,0.00,,SKC,0.00,VWS V13.01,2013-01-11 11:53:00,
2013-01-11 05:54:00,60.8,60.8,29.94,SSE,157,0.0,3.1,100,0.00,,SKC,0.00,VWS V13.01,2013-01-11 11:54:00,
2013-01-11 05:55:00,60.8,60.8,29.94,South,170,0.0,0.0,100,0.00,,SKC,0.00,VWS V13.01,2013-01-11 11:55:00,
2013-01-11 05:56:00,60.8,60.8,29.94,SSE,158,2.7,2.7,100,0.00,,SKC,0.00,VWS V13.01,2013-01-11 11:56:00,
2013-01-11 05:57:00,60.8,60.8,29.94,South,175,4.0,4.0,100,0.00,,SKC,0.00,VWS V13.01,2013-01-11 11:57:00,
2013-01-11 05:58:00,60.8,60.8,29.94,SW,220,0.0,4.0,100,0.00,,SKC,0.00,VWS V13.01,2013-01-11 11:58:00,
2013-01-11 05:59:00,60.8,60.8,29.94,SSE,164,4.0,4.9,100,0.00,,SKC,0.00,VWS V13.01,2013-01-11 11:59:00,
2013-01-11 06:00:00,60.8,60.8,29.94,South,170,2.7,4.9,100,0.00,,SKC,0.00,VWS V13.01,2013-01-11 12:00:00,
2013-01-11 06:01:00,60.8,60.8,29.94,South,191,0.0,4.0,100,0.00,,SKC,0.00,VWS V13.01,2013-01-11 12:01:00,
2013-01-11 06:02:00,60.8,60.8,29.94,SSE,159,4.9,4.9,100,0.00,,SKC,0.00,VWS V13.01,2013-01-11 12:02:00,
2013-01-11 06:03:00,60.8,60.8,29.94,SSE,155,6.3,6.3,100,0.00,,SKC,0.00,VWS V13.01,2013-01-11 12:03:00,
2013-01-11 06:04:00,60.8,60.8,29.94,South,172,2.7,6.3,100,0.00,,SKC,0.00,VWS V13.01,2013-01-11 12:04:00,
2013-01-11 06:05:00,60.8,60.8,29.94,SSE,152,2.7,3.1,100,0.00,,SKC,0.00,VWS V13.01,2013-01-11 12:05:00,
2013-01-11 06:06:00,60.8,60.8,29.94,South,174,0.0,2.7,100,0.00,,SKC,0.00,VWS V13.01,2013-01-11 12:06:00,
2013-01-11 06:07:00,60.8,60.8,29.94,SSW,208,0.0,3.1,100,0.00,,SKC,0.00,VWS V13.01,2013-01-11 12:07:00,
2013-01-11 06:08:00,60.8,60.8,29.94,South,172,4.0,7.6,100,0.00,,SKC,0.00,VWS V13.01,2013-01-11 12:08:00,
2013-01-11 06:09:00,60.8,60.8,29.94,SSE,152,0.0,4.0,100,0.00,,SKC,0.00,VWS V13.01,2013-01-11 12:09:00,
2013-01-11 06:10:00,60.8,60.8,29.94,SSE,168,3.6,3.6,100,0.00,,SKC,0.00,VWS V13.01,2013-01-11 12:10:00,
2013-01-11 06:11:00,60.8,60.8,29.94,SE,144,0.0,3.6,100,0.00,,SKC,0.00,VWS V13.01,2013-01-11 12:11:00,
2013-01-11 06:12:00,60.8,60.8,29.94,SSE,148,4.0,5.8,100,0.00,,SKC,0.00,VWS V13.01,2013-01-11 12:12:00,
2013-01-11 06:13:00,60.8,60.8,29.94,South,171,2.7,4.0,100,0.00,,SKC,0.00,VWS V13.01,2013-01-11 12:13:00,
2013-01-11 06:14:00,60.8,60.8,29.94,SSW,196,4.9,6.3,100,0.00,,SKC,0.00,VWS V13.01,2013-01-11 12:14:00,
2013-01-11 06:15:00,60.8,60.8,29.94,South,173,2.2,5.4,100,0.00,,SKC,0.00,VWS V13.01,2013-01-11 12:15:00,
2013-01-11 06:16:00,60.8,60.8,29.94,South,170,4.0,5.4,100,0.00,,SKC,0.00,VWS V13.01,2013-01-11 12:16:00,
2013-01-11 06:17:00,60.8,60.8,29.94,SSE,167,4.0,4.0,100,0.00,,SKC,0.00,VWS V13.01,2013-01-11 12:17:00,
2013-01-11 06:18:00,60.8,60.8,29.94,SSW,204,4.0,5.4,100,0.00,,SKC,0.00,VWS V13.01,2013-01-11 12:18:00,
2013-01-11 06:19:00,60.8,60.8,29.94,SSE,162,3.6,4.0,100,0.00,,SKC,0.00,VWS V13.01,2013-01-11 12:19:00,
2013-01-11 06:20:00,60.8,60.8,29.94,South,180,3.1,5.4,100,0.00,,SKC,0.00,VWS V13.01,2013-01-11 12:20:00,
2013-01-11 06:21:00,60.8,60.8,29.94,SSE,163,3.1,4.0,100,0.00,,SKC,0.00,VWS V13.01,2013-01-11 12:21:00,
2013-01-11 06:22:00,60.8,60.8,29.94,ESE,114,5.8,5.8,100,0.00,,SKC,0.00,VWS V13.01,2013-01-11 12:22:00,
2013-01-11 06:23:00,60.8,60.8,29.94,SSW,203,3.6,5.8,100,0.00,,SKC,0.00,VWS V13.01,2013-01-11 12:23:00,
2013-01-11 06:24:00,60.8,60.8,29.94,South,173,3.1,4.0,100,0.00,,SKC,0.00,VWS V13.01,2013-01-11 12:24:00,
2013-01-11 06:25:00,60.8,60.8,29.94,South,175,0.0,3.1,100,0.00,,SKC,0.00,VWS V13.01,2013-01-11 12:25:00,
2013-01-11 06:26:00,60.8,60.8,29.94,SSE,152,4.0,4.0,100,0.00,,SKC,0.00,VWS V13.01,2013-01-11 12:26:00,
2013-01-11 06:27:00,61.0,61.0,29.94,South,177,3.6,4.0,100,0.00,,SKC,0.00,VWS V13.01,2013-01-11 12:27:00,
2013-01-11 06:28:00,60.8,60.8,29.94,SSE,159,3.6,4.9,100,0.00,,SKC,0.00,VWS V13.01,2013-01-11 12:28:00,
2013-01-11 06:29:00,60.8,60.8,29.94,South,180,3.6,4.0,100,0.00,,SKC,0.00,VWS V13.01,2013-01-11 12:29:00,
2013-01-11 06:30:00,60.8,60.8,29.94,South,185,5.8,6.7,100,0.00,,SKC,0.00,VWS V13.01,2013-01-11 12:30:00,
2013-01-11 06:31:00,60.8,60.8,29.94,WSW,247,4.9,7.6,100,0.00,,SKC,0.00,VWS V13.01,2013-01-11 12:31:00,
2013-01-11 06:32:00,60.8,60.8,29.94,SW,216,4.0,5.4,100,0.00,,SKC,0.00,VWS V13.01,2013-01-11 12:32:00,
2013-01-11 06:33:00,61.0,61.0,29.94,SSE,150,4.0,4.0,100,0.00,,SKC,0.00,VWS V13.01,2013-01-11 12:33:00,
2013-01-11 06:34:00,61.0,61.0,29.94,SSW,200,6.3,6.3,100,0.00,,SKC,0.00,VWS V13.01,2013-01-11 12:34:00,
2013-01-11 06:35:00,61.0,61.0,29.94,SSE,147,3.6,8.1,100,0.00,,SKC,0.00,VWS V13.01,2013-01-11 12:35:00,
2013-01-11 06:36:00,61.0,61.0,29.94,SSW,201,4.0,5.8,100,0.00,,SKC,0.00,VWS V13.01,2013-01-11 12:36:00,
2013-01-11 06:37:00,61.0,61.0,29.94,South,170,8.3,8.3,100,0.00,,SKC,0.00,VWS V13.01,2013-01-11 12:37:00,
2013-01-11 06:38:00,61.0,61.0,29.94,SSE,149,7.6,7.6,100,0.00,,SKC,0.00,VWS V13.01,2013-01-11 12:38:00,
2013-01-11 06:39:00,61.1,61.1,29.94,South,174,5.8,7.6,100,0.00,,SKC,0.00,VWS V13.01,2013-01-11 12:39:00,
2013-01-11 06:40:00,61.1,61.1,29.94,SW,223,5.4,8.1,100,0.00,,SKC,0.00,VWS V13.01,2013-01-11 12:40:00,
2013-01-11 06:41:00,61.1,61.1,29.94,SSW,201,2.2,5.4,100,0.00,,SKC,0.00,VWS V13.01,2013-01-11 12:41:00,
2013-01-11 06:42:00,61.1,61.1,29.94,SW,227,3.1,3.1,100,0.00,,SKC,0.00,VWS V13.01,2013-01-11 12:42:00,
2013-01-11 06:43:00,61.1,61.1,29.97,South,175,5.4,5.4,100,0.00,,SKC,0.00,VWS V13.01,2013-01-11 12:43:00,
2013-01-11 06:44:00,61.1,61.1,29.97,SSW,209,6.3,8.3,100,0.00,,SKC,0.00,VWS V13.01,2013-01-11 12:44:00,
2013-01-11 06:45:00,61.3,61.3,29.97,South,174,3.6,7.6,100,0.00,,SKC,0.00,VWS V13.01,2013-01-11 12:45:00,
2013-01-11 06:46:00,61.3,61.3,29.97,South,172,4.5,6.3,100,0.00,,SKC,0.00,VWS V13.01,2013-01-11 12:46:00,
2013-01-11 06:47:00,61.3,61.3,29.97,SSE,147,0.0,6.3,100,0.00,,SKC,0.00,VWS V13.01,2013-01-11 12:47:00,
2013-01-11 06:48:00,61.3,61.3,29.97,SW,222,0.0,5.8,100,0.00,,SKC,0.00,VWS V13.01,2013-01-11 12:48:00,
2013-01-11 06:49:00,61.3,61.3,29.97,SSW,209,3.6,6.3,100,0.00,,SKC,0.00,VWS V13.01,2013-01-11 12:49:00,
2013-01-11 06:50:00,61.3,61.3,29.97,South,178,3.6,3.6,100,0.00,,SKC,0.00,VWS V13.01,2013-01-11 12:50:00,
2013-01-11 06:51:00,61.1,61.1,29.97,South,185,3.6,6.3,100,0.00,,SKC,0.00,VWS V13.01,2013-01-11 12:51:00,
2013-01-11 06:52:00,61.1,61.1,29.97,SSE,149,4.0,8.1,100,0.00,,SKC,0.00,VWS V13.01,2013-01-11 12:52:00,
2013-01-11 06:53:00,61.1,61.1,29.97,SSE,168,5.8,5.8,100,0.00,,SKC,0.00,VWS V13.01,2013-01-11 12:53:00,
2013-01-11 06:54:00,61.1,61.1,29.97,South,171,4.0,8.7,100,0.00,,SKC,0.00,VWS V13.01,2013-01-11 12:54:00,
2013-01-11 06:55:00,61.1,61.1,29.97,SSE,165,3.1,4.9,100,0.00,,SKC,0.00,VWS V13.01,2013-01-11 12:55:00,
2013-01-11 06:56:00,61.1,61.1,29.97,South,174,2.7,4.0,100,0.00,,SKC,0.00,VWS V13.01,2013-01-11 12:56:00,
2013-01-11 06:57:00,61.1,61.1,29.97,South,181,0.0,2.7,100,0.00,,SKC,0.00,VWS V13.01,2013-01-11 12:57:00,
2013-01-11 06:58:00,61.1,61.1,29.97,SSE,156,6.3,6.3,100,0.00,,SKC,0.00,VWS V13.01,2013-01-11 12:58:00,
2013-01-11 06:59:00,61.1,61.1,29.97,SSE,158,4.0,6.3,100,0.00,,SKC,0.00,VWS V13.01,2013-01-11 12:59:00,
2013-01-11 07:00:00,61.1,61.1,29.97,South,174,4.0,4.0,100,0.00,,SKC,0.00,VWS V13.01,2013-01-11 13:00:00,
2013-01-11 07:01:00,61.0,61.0,29.97,SSE,160,3.1,5.8,100,0.00,,SKC,0.00,VWS V13.01,2013-01-11 13:01:00,
2013-01-11 07:02:00,61.0,61.0,29.97,SSE,161,4.0,4.0,100,0.00,,SKC,0.00,VWS V13.01,2013-01-11 13:02:00,
2013-01-11 07:03:00,61.0,61.0,29.97,South,179,4.0,4.0,100,0.00,,SKC,0.00,VWS V13.01,2013-01-11 13:03:00,
2013-01-11 07:04:00,61.0,61.0,29.97,South,182,4.0,4.0,100,0.00,,SKC,0.00,VWS V13.01,2013-01-11 13:04:00,
2013-01-11 07:05:00,61.0,61.0,29.97,SSE,150,0.0,4.0,100,0.00,,SKC,0.00,VWS V13.01,2013-01-11 13:05:00,
2013-01-11 07:06:00,60.8,60.8,29.97,SSE,160,4.0,4.0,100,0.00,,SKC,0.00,VWS V13.01,2013-01-11 13:06:00,
2013-01-11 07:07:00,60.8,60.8,29.97,SSE,166,3.6,4.0,100,0.00,,SKC,0.00,VWS V13.01,2013-01-11 13:07:00,
2013-01-11 07:08:00,60.8,60.8,29.97,SSE,158,3.1,5.4,100,0.00,,SKC,0.00,VWS V13.01,2013-01-11 13:08:00,
2013-01-11 07:09:00,60.8,60.8,29.97,SSE,159,2.7,5.4,100,0.00,,SKC,0.00,VWS V13.01,2013-01-11 13:09:00,
2013-01-11 07:10:00,60.6,60.6,29.97,South,184,2.7,5.4,100,0.00,,SKC,0.00,VWS V13.01,2013-01-11 13:10:00,
2013-01-11 07:11:00,60.6,60.6,29.97,South,182,5.4,5.4,100,0.00,,SKC,0.00,VWS V13.01,2013-01-11 13:11:00,
2013-01-11 07:12:00,60.6,60.6,29.97,SSE,167,0.0,5.4,100,0.00,,SKC,0.00,VWS V13.01,2013-01-11 13:12:00,
2013-01-11 07:13:00,60.6,60.6,29.97,South,171,7.6,7.6,100,0.00,,SKC,0.00,VWS V13.01,2013-01-11 13:13:00,
2013-01-11 07:14:00,60.6,60.6,29.97,SSE,154,5.4,7.6,100,0.00,,SKC,0.00,VWS V13.01,2013-01-11 13:14:00,
2013-01-11 07:15:00,60.6,60.6,29.97,SSE,151,5.4,5.4,100,0.00,,SKC,0.00,VWS V13.01,2013-01-11 13:15:00,
2013-01-11 07:16:00,60.6,60.6,29.97,South,169,5.8,5.8,100,0.00,,SKC,0.00,VWS V13.01,2013-01-11 13:16:00,
2013-01-11 07:17:00,60.6,60.6,29.97,SSE,159,3.6,5.8,100,0.00,,SKC,0.00,VWS V13.01,2013-01-11 13:17:00,
2013-01-11 07:18:00,60.6,60.6,29.97,South,185,2.7,4.5,100,0.00,,SKC,0.00,VWS V13.01,2013-01-11 13:18:00,
2013-01-11 07:19:00,60.6,60.6,29.97,SSE,162,6.3,6.3,100,0.00,,SKC,0.00,VWS V13.01,2013-01-11 13:19:00,
2013-01-11 07:20:00,60.6,60.6,29.97,SSE,151,3.1,7.2,100,0.00,,SKC,0.00,VWS V13.01,2013-01-11 13:20:00,
2013-01-11 07:21:00,60.6,60.6,29.97,SSE,167,2.7,5.8,100,0.00,,SKC,0.00,VWS V13.01,2013-01-11 13:21:00,
2013-01-11 07:22:00,60.6,60.6,29.97,SSW,202,2.7,2.7,100,0.00,,SKC,0.00,VWS V13.01,2013-01-11 13:22:00,
2013-01-11 07:23:00,60.6,60.6,29.97,SSE,161,6.3,6.3,100,0.00,,SKC,0.00,VWS V13.01,2013-01-11 13:23:00,
2013-01-11 07:24:00,60.6,60.6,29.97,South,188,4.0,6.3,100,0.00,,SKC,0.00,VWS V13.01,2013-01-11 13:24:00,
2013-01-11 07:25:00,60.8,60.8,29.97,SSE,159,0.0,4.0,100,0.00,,SKC,0.00,VWS V13.01,2013-01-11 13:25:00,
2013-01-11 07:26:00,60.8,60.8,29.97,SSE,168,4.0,4.0,100,0.00,,SKC,0.00,VWS V13.01,2013-01-11 13:26:00,
2013-01-11 07:27:00,60.8,60.8,29.97,South,171,2.2,4.9,100,0.00,,SKC,0.00,VWS V13.01,2013-01-11 13:27:00,
2013-01-11 07:28:00,60.8,60.8,29.97,SSE,165,3.1,3.1,100,0.00,,SKC,0.00,VWS V13.01,2013-01-11 13:28:00,
2013-01-11 07:29:00,60.8,60.8,29.97,South,191,4.0,4.0,100,0.00,,SKC,0.00,VWS V13.01,2013-01-11 13:29:00,
2013-01-11 07:30:00,60.8,60.8,29.97,SSE,167,5.8,5.8,100,0.00,,SKC,0.00,VWS V13.01,2013-01-11 13:30:00,
2013-01-11 07:31:00,61.0,61.0,29.97,South,176,5.4,7.6,100,0.00,,SKC,0.00,VWS V13.01,2013-01-11 13:31:00,
2013-01-11 07:32:00,61.0,61.0,29.97,South,184,3.6,6.3,100,0.00,,SKC,0.00,VWS V13.01,2013-01-11 13:32:00,
2013-01-11 07:33:00,61.0,61.0,29.97,South,176,5.4,5.4,100,0.00,,SKC,0.00,VWS V13.01,2013-01-11 13:33:00,
2013-01-11 07:34:00,61.0,61.0,29.97,South,171,3.1,6.3,100,0.00,,SKC,0.00,VWS V13.01,2013-01-11 13:34:00,
2013-01-11 07:35:00,61.1,61.1,29.97,South,179,3.1,3.1,100,0.00,,SKC,0.00,VWS V13.01,2013-01-11 13:35:00,
2013-01-11 07:36:00,61.1,61.1,29.97,SSE,160,3.6,5.8,100,0.00,,SKC,0.00,VWS V13.01,2013-01-11 13:36:00,
2013-01-11 07:37:00,61.1,61.1,29.97,SSE,157,6.3,6.3,100,0.00,,SKC,0.00,VWS V13.01,2013-01-11 13:37:00,
2013-01-11 07:38:00,61.3,61.3,29.97,SE,146,2.2,4.9,100,0.00,,SKC,0.00,VWS V13.01,2013-01-11 13:38:00,
2013-01-11 07:39:00,61.3,61.3,29.97,SSE,161,0.0,6.3,100,0.00,,SKC,0.00,VWS V13.01,2013-01-11 13:39:00,
2013-01-11 07:40:00,61.3,61.3,29.97,South,188,3.6,3.6,100,0.00,,SKC,0.00,VWS V13.01,2013-01-11 13:40:00,
2013-01-11 07:41:00,61.3,61.3,29.97,SSE,165,4.0,5.8,100,0.00,,SKC,0.00,VWS V13.01,2013-01-11 13:41:00,
2013-01-11 07:42:00,61.5,61.5,29.97,SSW,192,3.6,5.4,100,0.00,,SKC,0.00,VWS V13.01,2013-01-11 13:42:00,
2013-01-11 07:43:00,61.5,61.5,29.97,SSE,168,4.0,7.2,100,0.00,,SKC,0.00,VWS V13.01,2013-01-11 13:43:00,
2013-01-11 07:44:00,61.5,61.5,29.97,South,177,2.7,4.9,100,0.00,,SKC,0.00,VWS V13.01,2013-01-11 13:44:00,
2013-01-11 07:45:00,61.5,61.5,29.97,SSE,165,3.6,3.6,100,0.00,,SKC,0.00,VWS V13.01,2013-01-11 13:45:00,
2013-01-11 07:46:00,61.7,61.7,29.97,SSE,168,5.4,8.3,100,0.00,,SKC,0.00,VWS V13.01,2013-01-11 13:46:00,
2013-01-11 07:47:00,61.7,61.7,29.97,SSE,157,2.7,5.8,100,0.00,,SKC,0.00,VWS V13.01,2013-01-11 13:47:00,
2013-01-11 07:48:00,61.7,61.7,29.97,South,179,0.0,2.7,100,0.00,,SKC,0.00,VWS V13.01,2013-01-11 13:48:00,
2013-01-11 07:49:00,61.7,61.7,29.97,South,173,0.0,2.7,100,0.00,,SKC,0.00,VWS V13.01,2013-01-11 13:49:00,
2013-01-11 07:50:00,61.7,61.7,29.97,South,176,3.6,5.8,100,0.00,,SKC,0.00,VWS V13.01,2013-01-11 13:50:00,
2013-01-11 07:51:00,61.7,61.7,29.97,SE,143,2.7,4.0,100,0.00,,SKC,0.00,VWS V13.01,2013-01-11 13:51:00,
2013-01-11 07:52:00,61.7,61.7,29.97,SSE,151,5.8,5.8,100,0.00,,SKC,0.00,VWS V13.01,2013-01-11 13:52:00,
2013-01-11 07:53:00,61.9,61.9,29.97,SSE,163,3.1,4.0,100,0.00,,SKC,0.00,VWS V13.01,2013-01-11 13:53:00,
2013-01-11 07:54:00,61.9,61.9,29.97,SE,141,4.5,4.5,100,0.00,,SKC,0.00,VWS V13.01,2013-01-11 13:54:00,
2013-01-11 07:55:00,61.9,61.9,29.97,South,173,8.7,8.7,100,0.00,,SKC,0.00,VWS V13.01,2013-01-11 13:55:00,
2013-01-11 07:56:00,61.9,61.9,29.97,SE,143,5.8,8.7,100,0.00,,SKC,0.00,VWS V13.01,2013-01-11 13:56:00,
2013-01-11 07:57:00,61.9,61.9,29.97,SSE,168,4.0,5.8,100,0.00,,SKC,0.00,VWS V13.01,2013-01-11 13:57:00,
2013-01-11 07:58:00,62.0,62.0,29.97,SSE,167,4.0,5.8,100,0.00,,SKC,0.00,VWS V13.01,2013-01-11 13:58:00,
2013-01-11 07:59:00,62.0,62.0,29.97,SSE,165,0.0,4.0,100,0.00,,SKC,0.00,VWS V13.01,2013-01-11 13:59:00,
2013-01-11 08:00:00,62.0,62.0,29.97,SSE,151,5.4,5.8,100,0.00,,SKC,0.00,VWS V13.01,2013-01-11 14:00:00,
2013-01-11 08:01:00,62.2,62.2,29.97,SSE,158,2.7,5.4,100,0.00,,SKC,0.00,VWS V13.01,2013-01-11 14:01:00,
2013-01-11 08:02:00,62.2,62.2,29.97,South,182,4.9,4.9,100,0.00,,SKC,0.00,VWS V13.01,2013-01-11 14:02:00,
2013-01-11 08:03:00,62.2,62.2,29.97,SSE,150,4.9,5.4,100,0.00,,SKC,0.00,VWS V13.01,2013-01-11 14:03:00,
2013-01-11 08:04:00,62.4,62.4,29.97,SE,136,4.9,4.9,100,0.00,,SKC,0.00,VWS V13.01,2013-01-11 14:04:00,
2013-01-11 08:05:00,62.4,62.4,29.97,South,172,4.9,5.8,100,0.00,,SKC,0.00,VWS V13.01,2013-01-11 14:05:00,
2013-01-11 08:06:00,62.4,62.4,29.97,SSE,163,4.0,5.4,100,0.00,,SKC,0.00,VWS V13.01,2013-01-11 14:06:00,
2013-01-11 08:07:00,62.4,62.4,29.97,SSE,163,0.0,4.0,100,0.00,,SKC,0.00,VWS V13.01,2013-01-11 14:07:00,
2013-01-11 08:08:00,62.6,62.6,29.97,SE,143,4.0,5.4,100,0.00,,SKC,0.00,VWS V13.01,2013-01-11 14:08:00,
2013-01-11 08:09:00,62.6,62.6,29.97,SSE,154,0.0,4.0,100,0.00,,SKC,0.00,VWS V13.01,2013-01-11 14:09:00,
2013-01-11 08:10:00,62.8,62.8,29.97,South,176,3.1,4.9,100,0.00,,SKC,0.00,VWS V13.01,2013-01-11 14:10:00,
2013-01-11 08:11:00,62.8,62.8,29.97,SSE,158,4.0,5.4,100,0.00,,SKC,0.00,VWS V13.01,2013-01-11 14:11:00,
2013-01-11 08:12:00,62.8,62.8,29.97,SSE,154,5.4,5.4,100,0.00,,SKC,0.00,VWS V13.01,2013-01-11 14:12:00,
2013-01-11 08:13:00,62.9,62.9,29.97,SSE,165,3.6,5.4,100,0.00,,SKC,0.00,VWS V13.01,2013-01-11 14:13:00,
2013-01-11 08:14:00,62.9,62.9,29.97,SSE,158,5.8,5.8,100,0.00,,SKC,0.00,VWS V13.01,2013-01-11 14:14:00,
2013-01-11 08:15:00,62.9,62.9,29.97,South,175,4.0,6.3,100,0.00,,SKC,0.00,VWS V13.01,2013-01-11 14:15:00,
2013-01-11 08:16:00,63.1,63.1,29.97,SE,137,3.6,5.4,100,0.00,,SKC,0.00,VWS V13.01,2013-01-11 14:16:00,
2013-01-11 08:17:00,63.1,63.1,29.97,ESE,118,3.6,4.0,100,0.00,,SKC,0.00,VWS V13.01,2013-01-11 14:17:00,
2013-01-11 08:18:00,63.1,63.1,29.97,SSE,157,4.9,7.6,100,0.00,,SKC,0.00,VWS V13.01,2013-01-11 14:18:00,
2013-01-11 08:19:00,63.1,63.1,29.97,SSE,159,4.0,4.9,100,0.00,,SKC,0.00,VWS V13.01,2013-01-11 14:19:00,
2013-01-11 08:20:00,63.1,63.1,29.97,South,173,3.1,6.7,100,0.00,,SKC,0.00,VWS V13.01,2013-01-11 14:20:00,
2013-01-11 08:21:00,63.3,63.3,29.97,South,183,3.1,5.4,100,0.00,,SKC,0.00,VWS V13.01,2013-01-11 14:21:00,
2013-01-11 08:22:00,63.3,63.3,29.97,SSE,149,3.1,3.6,100,0.00,,SKC,0.00,VWS V13.01,2013-01-11 14:22:00,
2013-01-11 08:23:00,63.3,63.3,29.97,SSW,197,4.5,4.9,100,0.00,,SKC,0.00,VWS V13.01,2013-01-11 14:23:00,
2013-01-11 08:24:00,63.5,63.5,29.97,SSE,166,2.2,4.5,100,0.00,,SKC,0.00,VWS V13.01,2013-01-11 14:24:00,
2013-01-11 08:25:00,63.5,63.5,29.97,South,176,5.8,5.8,100,0.00,,SKC,0.00,VWS V13.01,2013-01-11 14:25:00,
2013-01-11 08:26:00,63.5,63.5,29.97,SE,143,3.1,8.1,100,0.00,,SKC,0.00,VWS V13.01,2013-01-11 14:26:00,
2013-01-11 08:27:00,63.5,63.5,29.97,SSE,158,4.0,4.0,100,0.00,,SKC,0.00,VWS V13.01,2013-01-11 14:27:00,
2013-01-11 08:28:00,63.5,63.5,29.97,SSE,157,4.0,6.3,100,0.00,,SKC,0.00,VWS V13.01,2013-01-11 14:28:00,
2013-01-11 08:29:00,63.7,63.7,29.97,SSE,155,4.9,7.6,100,0.00,,SKC,0.00,VWS V13.01,2013-01-11 14:29:00,
2013-01-11 08:30:00,63.7,63.7,29.97,SE,142,5.8,6.3,100,0.00,,SKC,0.00,VWS V13.01,2013-01-11 14:30:00,
2013-01-11 08:31:00,63.7,63.7,29.97,SSE,166,5.8,5.8,100,0.00,,SKC,0.00,VWS V13.01,2013-01-11 14:31:00,
2013-01-11 08:32:00,63.7,63.7,29.97,SSE,165,8.1,8.1,100,0.00,,SKC,0.00,VWS V13.01,2013-01-11 14:32:00,
2013-01-11 08:33:00,63.7,63.7,29.97,SSE,163,4.0,8.1,100,0.00,,SKC,0.00,VWS V13.01,2013-01-11 14:33:00,
2013-01-11 08:34:00,63.8,63.8,29.97,South,179,5.4,7.6,100,0.00,,SKC,0.00,VWS V13.01,2013-01-11 14:34:00,
2013-01-11 08:35:00,63.8,63.8,29.97,SSE,166,6.3,7.6,100,0.00,,SKC,0.00,VWS V13.01,2013-01-11 14:35:00,
2013-01-11 08:36:00,63.8,63.8,29.97,SSE,160,4.0,6.3,100,0.00,,SKC,0.00,VWS V13.01,2013-01-11 14:36:00,
2013-01-11 08:37:00,63.8,63.8,29.97,South,174,5.4,5.4,100,0.00,,SKC,0.00,VWS V13.01,2013-01-11 14:37:00,
2013-01-11 08:38:00,63.8,63.8,29.97,SSW,193,4.9,6.3,100,0.00,,SKC,0.00,VWS V13.01,2013-01-11 14:38:00,
2013-01-11 08:39:00,63.8,63.8,29.97,SSE,156,4.0,4.9,100,0.00,,SKC,0.00,VWS V13.01,2013-01-11 14:39:00,
2013-01-11 08:40:00,63.8,63.8,29.97,SSE,161,5.8,5.8,100,0.00,,SKC,0.00,VWS V13.01,2013-01-11 14:40:00,
2013-01-11 08:41:00,63.8,63.8,29.97,South,187,8.7,8.7,100,0.00,,SKC,0.00,VWS V13.01,2013-01-11 14:41:00,
2013-01-11 08:42:00,63.8,63.8,29.97,SE,135,2.7,8.7,100,0.00,,SKC,0.00,VWS V13.01,2013-01-11 14:42:00,
2013-01-11 08:43:00,64.0,64.0,29.97,South,171,3.6,6.3,100,0.00,,SKC,0.00,VWS V13.01,2013-01-11 14:43:00,
2013-01-11 08:44:00,64.0,64.0,29.97,SSE,158,4.0,8.3,100,0.00,,SKC,0.00,VWS V13.01,2013-01-11 14:44:00,
2013-01-11 08:45:00,64.0,64.0,29.97,SSE,164,6.3,6.3,100,0.00,,SKC,0.00,VWS V13.01,2013-01-11 14:45:00,
2013-01-11 08:46:00,64.0,64.0,29.97,SSE,168,4.0,6.3,100,0.00,,SKC,0.00,VWS V13.01,2013-01-11 14:46:00,
2013-01-11 08:47:00,64.0,64.0,29.97,SSE,162,4.0,4.5,100,0.00,,SKC,0.00,VWS V13.01,2013-01-11 14:47:00,
2013-01-11 08:48:00,64.0,64.0,29.97,ESE,119,6.3,6.3,100,0.00,,SKC,0.00,VWS V13.01,2013-01-11 14:48:00,
2013-01-11 08:49:00,64.0,64.0,29.97,SE,146,6.3,7.6,100,0.00,,SKC,0.00,VWS V13.01,2013-01-11 14:49:00,
2013-01-11 08:50:00,64.0,64.0,29.97,SSE,151,3.6,6.3,100,0.00,,SKC,0.00,VWS V13.01,2013-01-11 14:50:00,
2013-01-11 08:51:00,64.2,64.2,29.97,SSE,168,6.3,6.3,100,0.00,,SKC,0.00,VWS V13.01,2013-01-11 14:51:00,
2013-01-11 08:52:00,64.2,64.2,29.97,South,187,8.3,8.3,100,0.00,,SKC,0.00,VWS V13.01,2013-01-11 14:52:00,
2013-01-11 08:53:00,64.2,64.2,29.97,SSE,154,5.4,7.6,100,0.00,,SKC,0.00,VWS V13.01,2013-01-11 14:53:00,
2013-01-11 08:54:00,64.2,64.2,29.97,SSE,155,5.4,8.1,100,0.00,,SKC,0.00,VWS V13.01,2013-01-11 14:54:00,
2013-01-11 08:55:00,64.4,64.4,29.97,SSW,193,4.9,7.6,100,0.00,,SKC,0.00,VWS V13.01,2013-01-11 14:55:00,
2013-01-11 08:56:00,64.4,64.4,29.97,South,172,5.8,6.3,100,0.00,,SKC,0.00,VWS V13.01,2013-01-11 14:56:00,
2013-01-11 08:57:00,64.4,64.4,29.97,SSE,149,4.9,5.8,100,0.00,,SKC,0.00,VWS V13.01,2013-01-11 14:57:00,
2013-01-11 08:58:00,64.4,64.4,29.97,South,174,6.3,6.3,100,0.00,,SKC,0.00,VWS V13.01,2013-01-11 14:58:00,
2013-01-11 08:59:00,64.4,64.4,29.97,South,172,8.3,8.3,100,0.00,,SKC,0.00,VWS V13.01,2013-01-11 14:59:00,
2013-01-11 09:00:00,64.6,64.6,29.97,SSE,152,3.6,8.3,100,0.00,,SKC,0.00,VWS V13.01,2013-01-11 15:00:00,
2013-01-11 09:01:00,64.6,64.6,29.97,SE,124,4.5,8.3,100,0.00,,SKC,0.00,VWS V13.01,2013-01-11 15:01:00,
2013-01-11 09:02:00,64.6,64.6,29.97,SE,140,4.0,4.5,100,0.00,,SKC,0.00,VWS V13.01,2013-01-11 15:02:00,
2013-01-11 09:03:00,64.6,64.6,29.97,South,187,4.0,8.1,100,0.00,,SKC,0.00,VWS V13.01,2013-01-11 15:03:00,
2013-01-11 09:04:00,64.7,64.7,29.97,SE,125,4.0,6.3,100,0.00,,SKC,0.00,VWS V13.01,2013-01-11 15:04:00,
2013-01-11 09:05:00,64.7,64.7,29.97,South,180,4.9,5.4,100,0.00,,SKC,0.00,VWS V13.01,2013-01-11 15:05:00,
2013-01-11 09:06:00,64.7,64.7,29.97,SSE,168,6.7,6.7,100,0.00,,SKC,0.00,VWS V13.01,2013-01-11 15:06:00,
2013-01-11 09:07:00,64.7,64.7,29.97,SE,133,7.6,7.6,100,0.00,,SKC,0.00,VWS V13.01,2013-01-11 15:07:00,
2013-01-11 09:08:00,64.7,64.7,29.97,South,187,6.3,6.3,100,0.00,,SKC,0.00,VWS V13.01,2013-01-11 15:08:00,
2013-01-11 09:09:00,64.9,64.9,29.97,South,172,3.1,6.3,100,0.00,,SKC,0.00,VWS V13.01,2013-01-11 15:09:00,
2013-01-11 09:10:00,64.9,64.9,29.97,SSE,167,10.1,10.1,100,0.00,,SKC,0.00,VWS V13.01,2013-01-11 15:10:00,
2013-01-11 09:11:00,64.9,64.9,29.97,South,170,5.8,10.1,100,0.00,,SKC,0.00,VWS V13.01,2013-01-11 15:11:00,
2013-01-11 09:12:00,64.9,64.9,29.97,SSE,166,4.9,5.8,100,0.00,,SKC,0.00,VWS V13.01,2013-01-11 15:12:00,
2013-01-11 09:13:00,65.1,65.1,30.00,SSW,206,6.3,6.3,100,0.00,,SKC,0.00,VWS V13.01,2013-01-11 15:13:00,
2013-01-11 09:14:00,65.1,65.1,30.00,South,171,8.1,8.1,100,0.00,,SKC,0.00,VWS V13.01,2013-01-11 15:14:00,
2013-01-11 09:15:00,65.1,65.1,30.00,South,173,4.9,8.1,100,0.00,,SKC,0.00,VWS V13.01,2013-01-11 15:15:00,
2013-01-11 09:16:00,65.1,65.1,30.00,SSE,149,8.7,11.0,100,0.00,,SKC,0.00,VWS V13.01,2013-01-11 15:16:00,
2013-01-11 09:17:00,65.1,65.1,30.00,SSE,166,6.3,8.7,100,0.00,,SKC,0.00,VWS V13.01,2013-01-11 15:17:00,
2013-01-11 09:18:00,65.1,65.1,30.00,SSE,157,5.4,8.3,100,0.00,,SKC,0.00,VWS V13.01,2013-01-11 15:18:00,
2013-01-11 09:19:00,65.1,65.1,30.00,SSE,168,4.9,8.7,100,0.00,,SKC,0.00,VWS V13.01,2013-01-11 15:19:00,
2013-01-11 09:20:00,65.1,65.1,30.00,South,176,6.3,10.5,100,0.00,,SKC,0.00,VWS V13.01,2013-01-11 15:20:00,
2013-01-11 09:21:00,65.3,65.3,30.00,SE,141,5.8,6.3,100,0.00,,SKC,0.00,VWS V13.01,2013-01-11 15:21:00,
2013-01-11 09:22:00,65.3,65.3,30.00,SSE,163,11.9,11.9,100,0.00,,SKC,0.00,VWS V13.01,2013-01-11 15:22:00,
2013-01-11 09:23:00,65.3,65.3,30.00,SSE,164,5.8,8.1,100,0.00,,SKC,0.00,VWS V13.01,2013-01-11 15:23:00,
2013-01-11 09:24:00,65.5,65.5,30.00,SSE,154,7.6,10.1,100,0.00,,SKC,0.00,VWS V13.01,2013-01-11 15:24:00,
2013-01-11 09:25:00,65.5,65.5,30.00,SSE,155,8.3,8.3,100,0.00,,SKC,0.00,VWS V13.01,2013-01-11 15:25:00,
2013-01-11 09:26:00,65.6,65.6,30.00,South,179,6.3,8.7,100,0.00,,SKC,0.00,VWS V13.01,2013-01-11 15:26:00,
2013-01-11 09:27:00,65.6,65.6,30.00,South,175,6.3,6.3,100,0.00,,SKC,0.00,VWS V13.01,2013-01-11 15:27:00,
2013-01-11 09:28:00,65.8,65.8,29.97,SSE,161,8.1,8.7,100,0.00,,SKC,0.00,VWS V13.01,2013-01-11 15:28:00,
2013-01-11 09:29:00,65.8,65.8,29.97,SE,127,5.8,8.3,100,0.00,,SKC,0.00,VWS V13.01,2013-01-11 15:29:00,
2013-01-11 09:30:00,65.8,65.8,29.97,SSW,207,7.6,10.5,100,0.00,,SKC,0.00,VWS V13.01,2013-01-11 15:30:00,
2013-01-11 09:31:00,66.0,66.0,29.97,South,170,4.9,8.1,100,0.00,,SKC,0.00,VWS V13.01,2013-01-11 15:31:00,
2013-01-11 09:32:00,66.0,66.0,29.97,South,182,5.8,5.8,100,0.00,,SKC,0.00,VWS V13.01,2013-01-11 15:32:00,
2013-01-11 09:33:00,66.0,66.0,29.97,SSW,200,7.6,7.6,100,0.00,,SKC,0.00,VWS V13.01,2013-01-11 15:33:00,
2013-01-11 09:34:00,66.0,66.0,29.97,South,189,8.3,8.3,100,0.00,,SKC,0.00,VWS V13.01,2013-01-11 15:34:00,
2013-01-11 09:35:00,66.0,66.0,29.97,South,179,3.1,8.3,100,0.00,,SKC,0.00,VWS V13.01,2013-01-11 15:35:00,
2013-01-11 09:36:00,66.0,66.0,29.97,SSE,166,6.3,6.3,100,0.00,,SKC,0.00,VWS V13.01,2013-01-11 15:36:00,
2013-01-11 09:37:00,66.0,66.0,29.97,SSW,192,7.6,7.6,100,0.00,,SKC,0.00,VWS V13.01,2013-01-11 15:37:00,
2013-01-11 09:38:00,66.0,65.4,29.97,SSW,197,5.8,8.7,98,0.00,,SKC,0.00,VWS V13.01,2013-01-11 15:38:00,
2013-01-11 09:39:00,66.2,66.2,29.97,SSE,161,5.8,6.3,100,0.00,,SKC,0.00,VWS V13.01,2013-01-11 15:39:00,
2013-01-11 09:40:00,66.2,66.2,29.97,South,188,8.3,10.1,100,0.00,,SKC,0.00,VWS V13.01,2013-01-11 15:40:00,
2013-01-11 09:41:00,66.2,65.3,29.97,SSE,155,3.6,8.3,97,0.00,,SKC,0.00,VWS V13.01,2013-01-11 15:41:00,
2013-01-11 09:42:00,66.2,65.3,29.97,ESE,120,3.1,3.6,97,0.00,,SKC,0.00,VWS V13.01,2013-01-11 15:42:00,
2013-01-11 09:43:00,66.0,61.4,30.00,South,180,7.2,7.2,85,0.00,,SKC,0.00,VWS V13.01,2013-01-11 15:43:00,
2013-01-11 09:44:00,65.8,60.9,30.00,SSE,152,4.0,7.2,84,0.00,,SKC,0.00,VWS V13.01,2013-01-11 15:44:00,
2013-01-11 09:45:00,65.8,60.5,30.00,SSE,157,5.4,5.8,83,0.00,,SKC,0.00,VWS V13.01,2013-01-11 15:45:00,
2013-01-11 09:46:00,65.8,60.9,30.00,SE,137,3.6,8.3,84,0.00,,SKC,0.00,VWS V13.01,2013-01-11 15:46:00,
2013-01-11 09:47:00,65.8,60.9,30.00,SSW,193,2.7,3.6,84,0.00,,SKC,0.00,VWS V13.01,2013-01-11 15:47:00,
2013-01-11 09:48:00,65.8,61.8,30.00,South,172,6.3,6.3,87,0.00,,SKC,0.00,VWS V13.01,2013-01-11 15:48:00,
2013-01-11 09:49:00,65.8,61.5,30.00,SE,131,2.7,6.3,86,0.00,,SKC,0.00,VWS V13.01,2013-01-11 15:49:00,
2013-01-11 09:50:00,66.0,61.7,30.00,ESE,110,3.1,3.6,86,0.00,,SKC,0.00,VWS V13.01,2013-01-11 15:50:00,
2013-01-11 09:51:00,66.0,61.4,30.00,SE,137,3.1,4.0,85,0.00,,SKC,0.00,VWS V13.01,2013-01-11 15:51:00,
2013-01-11 09:52:00,66.0,61.4,30.00,SSE,158,4.9,4.9,85,0.00,,SKC,0.00,VWS V13.01,2013-01-11 15:52:00,
2013-01-11 09:53:00,65.8,60.9,30.00,SSE,165,4.9,5.8,84,0.00,,SKC,0.00,VWS V13.01,2013-01-11 15:53:00,
2013-01-11 09:54:00,66.0,61.4,30.00,SSW,208,2.7,4.9,85,0.00,,SKC,0.00,VWS V13.01,2013-01-11 15:54:00,
2013-01-11 09:55:00,66.0,61.0,30.00,SE,139,6.7,7.6,84,0.00,,SKC,0.00,VWS V13.01,2013-01-11 15:55:00,
2013-01-11 09:56:00,66.0,61.4,30.00,South,170,4.9,6.7,85,0.00,,SKC,0.00,VWS V13.01,2013-01-11 15:56:00,
2013-01-11 09:57:00,66.0,61.4,30.00,South,170,4.0,4.9,85,0.00,,SKC,0.00,VWS V13.01,2013-01-11 15:57:00,
2013-01-11 09:58:00,66.0,62.0,30.00,SSE,154,2.7,5.4,87,0.00,,SKC,0.00,VWS V13.01,2013-01-11 15:58:00,
2013-01-11 09:59:00,66.2,62.2,30.00,SSE,166,5.8,5.8,87,0.00,,SKC,0.00,VWS V13.01,2013-01-11 15:59:00,
2013-01-11 10:00:00,66.2,62.5,30.00,South,183,4.0,8.1,88,0.00,,SKC,0.00,VWS V13.01,2013-01-11 16:00:00,
2013-01-11 10:01:00,66.2,62.5,30.00,ESE,102,4.0,5.8,88,0.00,,SKC,0.00,VWS V13.01,2013-01-11 16:01:00,
2013-01-11 10:02:00,66.2,62.5,30.00,ESE,116,5.4,5.4,88,0.00,,SKC,0.00,VWS V13.01,2013-01-11 16:02:00,
2013-01-11 10:03:00,66.4,61.7,30.00,SSE,161,2.7,6.3,85,0.00,,SKC,0.00,VWS V13.01,2013-01-11 16:03:00,
2013-01-11 10:04:00,66.4,61.7,30.00,SSE,149,2.7,3.6,85,0.00,,SKC,0.00,VWS V13.01,2013-01-11 16:04:00,
2013-01-11 10:05:00,66.4,61.7,30.00,South,171,8.1,8.1,85,0.00,,SKC,0.00,VWS V13.01,2013-01-11 16:05:00,
2013-01-11 10:06:00,66.4,62.0,30.00,SSE,168,4.9,8.1,86,0.00,,SKC,0.00,VWS V13.01,2013-01-11 16:06:00,
2013-01-11 10:07:00,66.4,62.0,30.00,SSE,168,4.9,8.1,86,0.00,,SKC,0.00,VWS V13.01,2013-01-11 16:07:00,
2013-01-11 10:08:00,66.5,61.9,30.00,SSE,165,3.6,5.4,85,0.00,,SKC,0.00,VWS V13.01,2013-01-11 16:08:00,
2013-01-11 10:09:00,66.5,61.6,30.00,SE,141,4.0,4.9,84,0.00,,SKC,0.00,VWS V13.01,2013-01-11 16:09:00,
2013-01-11 10:10:00,66.4,61.0,30.00,SSE,149,3.6,5.4,83,0.00,,SKC,0.00,VWS V13.01,2013-01-11 16:10:00,
2013-01-11 10:11:00,66.5,61.2,30.00,South,177,5.8,5.8,83,0.00,,SKC,0.00,VWS V13.01,2013-01-11 16:11:00,
2013-01-11 10:12:00,66.5,61.2,30.00,South,177,5.8,5.8,83,0.00,,SKC,0.00,VWS V13.01,2013-01-11 16:12:00,
2013-01-11 10:13:00,66.5,61.6,29.97,SSE,165,7.6,7.6,84,0.00,,SKC,0.00,VWS V13.01,2013-01-11 16:13:00,
2013-01-11 10:14:00,66.7,61.7,29.97,South,187,3.6,7.6,84,0.00,,SKC,0.00,VWS V13.01,2013-01-11 16:14:00,
2013-01-11 10:15:00,66.7,61.7,29.97,SSE,148,5.8,6.3,84,0.00,,SKC,0.00,VWS V13.01,2013-01-11 16:15:00,
2013-01-11 10:16:00,66.9,62.2,29.97,South,183,7.6,7.6,85,0.00,,SKC,0.00,VWS V13.01,2013-01-11 16:16:00,
2013-01-11 10:17:00,66.9,62.2,29.97,South,189,5.4,7.6,85,0.00,,SKC,0.00,VWS V13.01,2013-01-11 16:17:00,
2013-01-11 10:18:00,67.1,62.4,29.97,South,185,3.1,5.8,85,0.00,,SKC,0.00,VWS V13.01,2013-01-11 16:18:00,
2013-01-11 10:19:00,67.1,62.1,29.97,South,171,3.6,4.0,84,0.00,,SKC,0.00,VWS V13.01,2013-01-11 16:19:00,
2013-01-11 10:20:00,67.3,62.3,29.97,SE,127,2.7,4.0,84,0.00,,SKC,0.00,VWS V13.01,2013-01-11 16:20:00,
2013-01-11 10:21:00,67.3,62.3,29.97,South,172,5.8,5.8,84,0.00,,SKC,0.00,VWS V13.01,2013-01-11 16:21:00,
2013-01-11 10:22:00,67.3,62.3,29.97,SSE,149,6.3,6.3,84,0.00,,SKC,0.00,VWS V13.01,2013-01-11 16:22:00,
2013-01-11 10:23:00,67.4,62.1,29.97,SE,128,7.6,7.6,83,0.00,,SKC,0.00,VWS V13.01,2013-01-11 16:23:00,
2013-01-11 10:24:00,67.4,61.1,29.97,South,170,3.1,7.6,80,0.00,,SKC,0.00,VWS V13.01,2013-01-11 16:24:00,
2013-01-11 10:25:00,67.6,61.6,29.97,SSE,166,5.8,7.6,81,0.00,,SKC,0.00,VWS V13.01,2013-01-11 16:25:00,
2013-01-11 10:26:00,67.6,61.9,29.97,South,188,6.3,6.3,82,0.00,,SKC,0.00,VWS V13.01,2013-01-11 16:26:00,
2013-01-11 10:27:00,67.6,61.9,29.97,South,188,6.3,6.3,82,0.00,,SKC,0.00,VWS V13.01,2013-01-11 16:27:00,
2013-01-11 10:28:00,67.8,62.5,29.97,SSE,156,6.3,6.7,83,0.00,,SKC,0.00,VWS V13.01,2013-01-11 16:28:00,
2013-01-11 10:29:00,67.8,61.8,29.97,South,187,6.3,8.3,81,0.00,,SKC,0.00,VWS V13.01,2013-01-11 16:29:00,
2013-01-11 10:30:00,68.0,61.9,29.97,South,172,6.3,6.3,81,0.00,,SKC,0.00,VWS V13.01,2013-01-11 16:30:00,
2013-01-11 10:31:00,68.2,62.1,29.97,SE,128,3.6,8.3,81,0.00,,SKC,0.00,VWS V13.01,2013-01-11 16:31:00,
2013-01-11 10:32:00,68.2,62.1,29.97,SE,133,3.1,3.6,81,0.00,,SKC,0.00,VWS V13.01,2013-01-11 16:32:00,
2013-01-11 10:33:00,68.3,61.9,29.97,SW,216,3.6,5.8,80,0.00,,SKC,0.00,VWS V13.01,2013-01-11 16:33:00,
2013-01-11 10:34:00,68.5,62.1,29.97,SE,145,3.6,6.3,80,0.00,,SKC,0.00,VWS V13.01,2013-01-11 16:34:00,
2013-01-11 10:35:00,68.7,62.3,29.97,South,173,3.6,5.8,80,0.00,,SKC,0.00,VWS V13.01,2013-01-11 16:35:00,
2013-01-11 10:36:00,68.7,62.3,29.97,SSE,168,5.8,6.3,80,0.00,,SKC,0.00,VWS V13.01,2013-01-11 16:36:00,
2013-01-11 10:37:00,69.1,62.6,29.97,SSE,168,5.8,5.8,80,0.00,,SKC,0.00,VWS V13.01,2013-01-11 16:37:00,
2013-01-11 10:38:00,69.2,62.5,29.97,SE,141,6.3,6.3,79,0.00,,SKC,0.00,VWS V13.01,2013-01-11 16:38:00,
2013-01-11 10:39:00,69.2,62.1,29.97,South,177,6.3,8.1,78,0.00,,SKC,0.00,VWS V13.01,2013-01-11 16:39:00,
2013-01-11 10:40:00,69.4,62.6,29.97,SSW,199,0.0,6.3,79,0.00,,SKC,0.00,VWS V13.01,2013-01-11 16:40:00,
2013-01-11 10:41:00,69.4,62.3,29.97,East,98,4.0,4.0,78,0.00,,SKC,0.00,VWS V13.01,2013-01-11 16:41:00,
2013-01-11 10:42:00,69.4,62.3,29.97,SSE,161,3.6,4.0,78,0.00,,SKC,0.00,VWS V13.01,2013-01-11 16:42:00,
2013-01-11 10:43:00,69.4,62.3,29.97,SE,145,3.6,5.8,78,0.00,,SKC,0.00,VWS V13.01,2013-01-11 16:43:00,
2013-01-11 10:44:00,69.4,62.3,29.97,ESE,115,2.7,4.0,78,0.00,,SKC,0.00,VWS V13.01,2013-01-11 16:44:00,
2013-01-11 10:45:00,69.4,61.9,29.97,East,98,4.0,6.3,77,0.00,,SKC,0.00,VWS V13.01,2013-01-11 16:45:00,
2013-01-11 10:46:00,69.4,61.2,29.97,South,176,5.8,8.1,75,0.00,,SKC,0.00,VWS V13.01,2013-01-11 16:46:00,
2013-01-11 10:47:00,69.4,61.2,29.97,South,173,4.9,5.8,75,0.00,,SKC,0.00,VWS V13.01,2013-01-11 16:47:00,
2013-01-11 10:48:00,69.2,61.7,29.97,SSE,161,5.4,8.1,77,0.00,,SKC,0.00,VWS V13.01,2013-01-11 16:48:00,
2013-01-11 10:49:00,69.2,61.7,29.97,SSE,154,8.3,8.3,77,0.00,,SKC,0.00,VWS V13.01,2013-01-11 16:49:00,
2013-01-11 10:50:00,69.4,61.9,29.97,East,91,5.8,8.3,77,0.00,,SKC,0.00,VWS V13.01,2013-01-11 16:50:00,
2013-01-11 10:51:00,69.4,61.5,29.97,SSE,163,3.6,5.8,76,0.00,,SKC,0.00,VWS V13.01,2013-01-11 16:51:00,
2013-01-11 10:52:00,69.4,61.5,29.97,SSE,163,3.6,5.8,76,0.00,,SKC,0.00,VWS V13.01,2013-01-11 16:52:00,
2013-01-11 10:53:00,69.4,61.9,29.97,ESE,108,4.9,7.6,77,0.00,,SKC,0.00,VWS V13.01,2013-01-11 16:53:00,
2013-01-11 10:54:00,69.4,61.5,29.97,ESE,116,4.9,4.9,76,0.00,,SKC,0.00,VWS V13.01,2013-01-11 16:54:00,
2013-01-11 10:55:00,69.2,60.6,29.97,SE,138,4.9,5.8,74,0.00,,SKC,0.00,VWS V13.01,2013-01-11 16:55:00,
2013-01-11 10:56:00,69.2,60.6,29.97,ESE,123,6.3,6.3,74,0.00,,SKC,0.00,VWS V13.01,2013-01-11 16:56:00,
2013-01-11 10:57:00,69.2,60.6,29.97,SSE,157,4.0,6.3,74,0.00,,SKC,0.00,VWS V13.01,2013-01-11 16:57:00,
2013-01-11 10:58:00,69.2,61.0,29.97,SSE,164,2.7,5.4,75,0.00,,SKC,0.00,VWS V13.01,2013-01-11 16:58:00,
2013-01-11 10:59:00,69.2,61.7,29.97,ESE,104,5.8,6.3,77,0.00,,SKC,0.00,VWS V13.01,2013-01-11 16:59:00,
2013-01-11 11:00:00,69.2,61.7,29.97,SSE,149,3.1,7.6,77,0.00,,SKC,0.00,VWS V13.01,2013-01-11 17:00:00,
2013-01-11 11:01:00,69.2,61.7,29.97,South,177,5.4,11.0,77,0.00,,SKC,0.00,VWS V13.01,2013-01-11 17:01:00,
2013-01-11 11:02:00,69.2,61.7,29.97,South,181,4.0,5.4,77,0.00,,SKC,0.00,VWS V13.01,2013-01-11 17:02:00,
2013-01-11 11:03:00,69.2,61.7,29.97,SE,130,5.4,5.4,77,0.00,,SKC,0.00,VWS V13.01,2013-01-11 17:03:00,
2013-01-11 11:04:00,69.2,61.4,29.97,SE,126,6.3,6.3,76,0.00,,SKC,0.00,VWS V13.01,2013-01-11 17:04:00,
2013-01-11 11:05:00,69.2,61.4,29.97,SSE,159,5.8,6.3,76,0.00,,SKC,0.00,VWS V13.01,2013-01-11 17:05:00,
2013-01-11 11:06:00,69.2,61.4,29.97,SE,133,7.6,7.6,76,0.00,,SKC,0.00,VWS V13.01,2013-01-11 17:06:00,
2013-01-11 11:07:00,69.2,60.2,29.97,SE,128,4.0,7.6,73,0.00,,SKC,0.00,VWS V13.01,2013-01-11 17:07:00,
2013-01-11 11:08:00,69.2,60.6,29.97,SE,134,5.4,7.2,74,0.00,,SKC,0.00,VWS V13.01,2013-01-11 17:08:00,
2013-01-11 11:09:00,69.1,60.0,29.97,SE,124,3.6,5.8,73,0.00,,SKC,0.00,VWS V13.01,2013-01-11 17:09:00,
2013-01-11 11:10:00,69.1,60.8,29.97,ESE,103,4.0,6.3,75,0.00,,SKC,0.00,VWS V13.01,2013-01-11 17:10:00,
2013-01-11 11:11:00,69.1,60.8,29.97,SSE,150,4.0,4.0,75,0.00,,SKC,0.00,VWS V13.01,2013-01-11 17:11:00,
2013-01-11 11:12:00,69.1,61.2,29.97,SE,124,4.9,6.3,76,0.00,,SKC,0.00,VWS V13.01,2013-01-11 17:12:00,
2013-01-11 11:13:00,69.1,61.6,29.97,SSE,160,5.4,5.4,77,0.00,,SKC,0.00,VWS V13.01,2013-01-11 17:13:00,
2013-01-11 11:14:00,69.1,61.6,29.97,South,169,6.7,7.2,77,0.00,,SKC,0.00,VWS V13.01,2013-01-11 17:14:00,
2013-01-11 11:15:00,69.1,61.6,29.97,SSE,148,4.0,6.7,77,0.00,,SKC,0.00,VWS V13.01,2013-01-11 17:15:00,
2013-01-11 11:16:00,69.1,61.9,29.97,SSE,160,5.8,8.3,78,0.00,,SKC,0.00,VWS V13.01,2013-01-11 17:16:00,
2013-01-11 11:17:00,69.1,61.9,29.97,ESE,106,4.9,5.8,78,0.00,,SKC,0.00,VWS V13.01,2013-01-11 17:17:00,
2013-01-11 11:18:00,69.1,61.9,29.97,SE,126,5.4,5.4,78,0.00,,SKC,0.00,VWS V13.01,2013-01-11 17:18:00,
2013-01-11 11:19:00,69.1,61.9,29.97,SE,137,6.3,6.3,78,0.00,,SKC,0.00,VWS V13.01,2013-01-11 17:19:00,
2013-01-11 11:20:00,69.1,61.6,29.97,ESE,118,3.6,6.3,77,0.00,,SKC,0.00,VWS V13.01,2013-01-11 17:20:00,
2013-01-11 11:21:00,69.1,60.8,29.97,South,172,4.0,5.4,75,0.00,,SKC,0.00,VWS V13.01,2013-01-11 17:21:00,
2013-01-11 11:22:00,68.9,60.3,29.97,SE,145,6.3,6.3,74,0.00,,SKC,0.00,VWS V13.01,2013-01-11 17:22:00,
2013-01-11 11:23:00,68.9,61.0,29.97,SSE,150,6.3,6.3,76,0.00,,SKC,0.00,VWS V13.01,2013-01-11 17:23:00,
2013-01-11 11:24:00,68.9,61.4,29.97,SE,124,4.9,6.3,77,0.00,,SKC,0.00,VWS V13.01,2013-01-11 17:24:00,
2013-01-11 11:25:00,68.9,61.0,29.97,SSE,154,5.8,7.2,76,0.00,,SKC,0.00,VWS V13.01,2013-01-11 17:25:00,
2013-01-11 11:26:00,68.9,61.0,29.97,East,101,3.6,6.3,76,0.00,,SKC,0.00,VWS V13.01,2013-01-11 17:26:00,
2013-01-11 11:27:00,68.9,61.4,29.97,South,169,5.8,5.8,77,0.00,,SKC,0.00,VWS V13.01,2013-01-11 17:27:00,
2013-01-11 11:28:00,68.9,61.4,29.97,SSW,194,5.4,7.6,77,0.00,,SKC,0.00,VWS V13.01,2013-01-11 17:28:00,
2013-01-11 11:29:00,69.1,61.6,29.97,South,172,4.9,5.4,77,0.00,,SKC,0.00,VWS V13.01,2013-01-11 17:29:00,
2013-01-11 11:30:00,69.1,61.6,29.97,SSE,147,7.6,7.6,77,0.00,,SKC,0.00,VWS V13.01,2013-01-11 17:30:00,
2013-01-11 11:31:00,69.1,61.6,29.97,SSE,155,4.0,4.0,77,0.00,,SKC,0.00,VWS V13.01,2013-01-11 17:31:00,
2013-01-11 11:32:00,69.1,60.8,29.97,ESE,122,4.9,6.3,75,0.00,,SKC,0.00,VWS V13.01,2013-01-11 17:32:00,
2013-01-11 11:33:00,69.1,60.8,29.97,ESE,121,6.7,7.6,75,0.00,,SKC,0.00,VWS V13.01,2013-01-11 17:33:00,
2013-01-11 11:34:00,69.2,61.4,29.97,SE,136,5.8,8.7,76,0.00,,SKC,0.00,VWS V13.01,2013-01-11 17:34:00,
2013-01-11 11:35:00,69.2,61.7,29.97,SE,145,3.6,6.3,77,0.00,,SKC,0.00,VWS V13.01,2013-01-11 17:35:00,
2013-01-11 11:36:00,69.4,61.9,29.97,SSE,147,5.8,8.3,77,0.00,,SKC,0.00,VWS V13.01,2013-01-11 17:36:00,
2013-01-11 11:37:00,69.6,62.1,29.97,SSE,157,6.3,6.3,77,0.00,,SKC,0.00,VWS V13.01,2013-01-11 17:37:00,
2013-01-11 11:38:00,69.6,62.1,29.97,SSE,156,5.8,8.7,77,0.00,,SKC,0.00,VWS V13.01,2013-01-11 17:38:00,
2013-01-11 11:39:00,69.6,61.7,29.97,SSE,160,4.0,5.8,76,0.00,,SKC,0.00,VWS V13.01,2013-01-11 17:39:00,
2013-01-11 11:40:00,69.8,61.9,29.97,SSE,147,3.1,5.4,76,0.00,,SKC,0.00,VWS V13.01,2013-01-11 17:40:00,
2013-01-11 11:41:00,69.8,61.1,29.97,ESE,118,5.8,7.6,74,0.00,,SKC,0.00,VWS V13.01,2013-01-11 17:41:00,
2013-01-11 11:42:00,69.8,61.1,29.97,ESE,109,3.6,6.3,74,0.00,,SKC,0.00,VWS V13.01,2013-01-11 17:42:00,
2013-01-11 11:43:00,70.0,61.3,29.97,SE,127,3.6,4.9,74,0.00,,SKC,0.00,VWS V13.01,2013-01-11 17:43:00,
2013-01-11 11:44:00,70.1,61.1,29.97,ESE,117,4.9,6.3,73,0.00,,SKC,0.00,VWS V13.01,2013-01-11 17:44:00,
2013-01-11 11:45:00,70.1,61.1,29.97,ESE,116,5.8,5.8,73,0.00,,SKC,0.00,VWS V13.01,2013-01-11 17:45:00,
2013-01-11 11:46:00,70.1,61.1,29.97,SSE,157,4.0,6.3,73,0.00,,SKC,0.00,VWS V13.01,2013-01-11 17:46:00,
2013-01-11 11:47:00,70.1,60.7,29.97,SE,141,5.8,6.3,72,0.00,,SKC,0.00,VWS V13.01,2013-01-11 17:47:00,
2013-01-11 11:48:00,70.3,60.9,29.97,SSE,160,4.0,5.8,72,0.00,,SKC,0.00,VWS V13.01,2013-01-11 17:48:00,
2013-01-11 11:49:00,70.3,60.9,29.97,ESE,123,4.9,5.8,72,0.00,,SKC,0.00,VWS V13.01,2013-01-11 17:49:00,
2013-01-11 11:50:00,70.3,60.5,29.97,South,181,6.3,6.3,71,0.00,,SKC,0.00,VWS V13.01,2013-01-11 17:50:00,
2013-01-11 11:51:00,70.3,60.5,29.97,East,90,5.4,6.3,71,0.00,,SKC,0.00,VWS V13.01,2013-01-11 17:51:00,
2013-01-11 11:52:00,70.3,60.9,29.97,SE,132,4.0,5.4,72,0.00,,SKC,0.00,VWS V13.01,2013-01-11 17:52:00,
2013-01-11 11:53:00,70.3,60.9,29.97,SE,124,5.4,8.1,72,0.00,,SKC,0.00,VWS V13.01,2013-01-11 17:53:00,
2013-01-11 11:54:00,70.3,60.5,29.97,SE,140,3.1,8.1,71,0.00,,SKC,0.00,VWS V13.01,2013-01-11 17:54:00,
2013-01-11 11:55:00,70.1,59.9,29.97,SE,136,8.3,8.7,70,0.00,,SKC,0.00,VWS V13.01,2013-01-11 17:55:00,
2013-01-11 11:56:00,70.1,60.3,29.97,SE,138,5.4,8.3,71,0.00,,SKC,0.00,VWS V13.01,2013-01-11 17:56:00,
2013-01-11 11:57:00,70.3,60.5,29.97,ESE,121,4.9,6.3,71,0.00,,SKC,0.00,VWS V13.01,2013-01-11 17:57:00,
2013-01-11 11:58:00,70.3,60.1,29.94,ESE,108,8.1,8.1,70,0.00,,SKC,0.00,VWS V13.01,2013-01-11 17:58:00,
2013-01-11 11:59:00,70.3,60.5,29.94,SE,137,5.4,8.1,71,0.00,,SKC,0.00,VWS V13.01,2013-01-11 17:59:00,
2013-01-11 12:00:00,70.3,60.9,29.94,SE,138,4.0,6.3,72,0.00,,SKC,0.00,VWS V13.01,2013-01-11 18:00:00,
2013-01-11 12:01:00,70.3,60.9,29.94,SE,134,5.8,5.8,72,0.00,,SKC,0.00,VWS V13.01,2013-01-11 18:01:00,
2013-01-11 12:02:00,70.3,60.5,29.94,ESE,108,4.0,10.1,71,0.00,,SKC,0.00,VWS V13.01,2013-01-11 18:02:00,
2013-01-11 12:03:00,70.3,61.3,29.94,SE,136,5.4,5.4,73,0.00,,SKC,0.00,VWS V13.01,2013-01-11 18:03:00,
2013-01-11 12:04:00,70.3,60.5,29.94,SE,129,5.4,8.3,71,0.00,,SKC,0.00,VWS V13.01,2013-01-11 18:04:00,
2013-01-11 12:05:00,70.3,60.1,29.94,South,173,8.1,8.1,70,0.00,,SKC,0.00,VWS V13.01,2013-01-11 18:05:00,
2013-01-11 12:06:00,70.1,59.9,29.94,ESE,122,6.3,8.1,70,0.00,,SKC,0.00,VWS V13.01,2013-01-11 18:06:00,
2013-01-11 12:07:00,70.1,59.9,29.94,SSE,162,6.3,6.3,70,0.00,,SKC,0.00,VWS V13.01,2013-01-11 18:07:00,
2013-01-11 12:08:00,70.1,60.7,29.94,ESE,121,5.4,7.6,72,0.00,,SKC,0.00,VWS V13.01,2013-01-11 18:08:00,
2013-01-11 12:09:00,70.0,60.5,29.94,South,171,4.0,5.4,72,0.00,,SKC,0.00,VWS V13.01,2013-01-11 18:09:00,
2013-01-11 12:10:00,70.0,60.5,29.94,South,180,6.3,6.3,72,0.00,,SKC,0.00,VWS V13.01,2013-01-11 18:10:00,
2013-01-11 12:11:00,70.0,60.5,29.94,SE,138,4.9,6.3,72,0.00,,SKC,0.00,VWS V13.01,2013-01-11 18:11:00,
2013-01-11 12:12:00,70.0,60.9,29.94,SE,136,5.8,8.3,73,0.00,,SKC,0.00,VWS V13.01,2013-01-11 18:12:00,
2013-01-11 12:13:00,69.8,60.4,29.94,South,169,6.3,6.3,72,0.00,,SKC,0.00,VWS V13.01,2013-01-11 18:13:00,
2013-01-11 12:14:00,69.8,60.4,29.94,South,178,6.3,6.3,72,0.00,,SKC,0.00,VWS V13.01,2013-01-11 18:14:00,
2013-01-11 12:15:00,69.8,60.4,29.94,SE,145,4.0,6.3,72,0.00,,SKC,0.00,VWS V13.01,2013-01-11 18:15:00,
2013-01-11 12:16:00,69.8,60.8,29.94,SE,130,5.8,5.8,73,0.00,,SKC,0.00,VWS V13.01,2013-01-11 18:16:00,
2013-01-11 12:17:00,69.8,61.1,29.94,East,88,4.9,6.3,74,0.00,,SKC,0.00,VWS V13.01,2013-01-11 18:17:00,
2013-01-11 12:18:00,69.8,60.0,29.94,SSE,157,5.8,5.8,71,0.00,,SKC,0.00,VWS V13.01,2013-01-11 18:18:00,
2013-01-11 12:19:00,69.8,60.4,29.94,ESE,104,4.0,5.8,72,0.00,,SKC,0.00,VWS V13.01,2013-01-11 18:19:00,
2013-01-11 12:20:00,69.8,60.7,29.94,SSE,153,4.0,5.8,73,0.00,,SKC,0.00,VWS V13.01,2013-01-11 18:20:00,
2013-01-11 12:21:00,69.8,60.8,29.94,SE,141,3.1,5.8,73,0.00,,SKC,0.00,VWS V13.01,2013-01-11 18:21:00,
2013-01-11 12:22:00,70.0,61.3,29.94,SSE,150,4.0,5.4,74,0.00,,SKC,0.00,VWS V13.01,2013-01-11 18:22:00,
2013-01-11 12:23:00,70.0,61.7,29.94,SSE,148,4.0,4.9,75,0.00,,SKC,0.00,VWS V13.01,2013-01-11 18:23:00,
2013-01-11 12:24:00,70.0,61.7,29.94,ESE,114,4.9,5.4,75,0.00,,SKC,0.00,VWS V13.01,2013-01-11 18:24:00,
2013-01-11 12:25:00,70.0,61.7,29.94,South,174,5.4,5.4,75,0.00,,SKC,0.00,VWS V13.01,2013-01-11 18:25:00,
2013-01-11 12:26:00,70.1,61.9,29.94,SSE,158,5.8,6.3,75,0.00,,SKC,0.00,VWS V13.01,2013-01-11 18:26:00,
2013-01-11 12:27:00,70.1,61.1,29.94,ESE,122,8.1,8.1,73,0.00,,SKC,0.00,VWS V13.01,2013-01-11 18:27:00,
2013-01-11 12:28:00,70.1,60.7,29.94,ESE,123,2.7,8.1,72,0.00,,SKC,0.00,VWS V13.01,2013-01-11 18:28:00,
2013-01-11 12:29:00,70.1,60.7,29.94,SSW,213,3.6,4.0,72,0.00,,SKC,0.00,VWS V13.01,2013-01-11 18:29:00,
2013-01-11 12:30:00,70.1,60.3,29.94,ESE,117,6.3,6.3,71,0.00,,SKC,0.00,VWS V13.01,2013-01-11 18:30:00,
2013-01-11 12:31:00,70.1,60.7,29.94,ESE,109,6.3,6.7,72,0.00,,SKC,0.00,VWS V13.01,2013-01-11 18:31:00,
2013-01-11 12:32:00,70.3,60.9,29.94,ESE,117,4.0,7.2,72,0.00,,SKC,0.00,VWS V13.01,2013-01-11 18:32:00,
2013-01-11 12:33:00,70.1,60.3,29.94,SSE,160,8.1,8.1,71,0.00,,SKC,0.00,VWS V13.01,2013-01-11 18:33:00,
2013-01-11 12:34:00,70.3,60.9,29.94,ESE,105,3.1,8.1,72,0.00,,SKC,0.00,VWS V13.01,2013-01-11 18:34:00,
2013-01-11 12:35:00,70.1,59.9,29.94,ESE,120,5.4,5.8,70,0.00,,SKC,0.00,VWS V13.01,2013-01-11 18:35:00,
2013-01-11 12:36:00,70.1,59.9,29.94,South,172,5.4,6.3,70,0.00,,SKC,0.00,VWS V13.01,2013-01-11 18:36:00,
2013-01-11 12:37:00,70.1,60.7,29.94,SE,139,6.3,6.3,72,0.00,,SKC,0.00,VWS V13.01,2013-01-11 18:37:00,
2013-01-11 12:38:00,70.1,60.3,29.94,South,184,3.6,6.3,71,0.00,,SKC,0.00,VWS V13.01,2013-01-11 18:38:00,
2013-01-11 12:39:00,70.0,60.1,29.94,SSE,153,5.8,6.3,71,0.00,,SKC,0.00,VWS V13.01,2013-01-11 18:39:00,
2013-01-11 12:40:00,70.0,60.1,29.94,SSE,166,3.1,5.8,71,0.00,,SKC,0.00,VWS V13.01,2013-01-11 18:40:00,
2013-01-11 12:41:00,69.8,60.0,29.94,SE,130,4.0,4.0,71,0.00,,SKC,0.00,VWS V13.01,2013-01-11 18:41:00,
2013-01-11 12:42:00,69.8,60.4,29.94,SSW,192,3.6,4.9,72,0.00,,SKC,0.00,VWS V13.01,2013-01-11 18:42:00,
2013-01-11 12:43:00,69.8,60.4,29.94,SE,132,4.0,5.8,72,0.00,,SKC,0.00,VWS V13.01,2013-01-11 18:43:00,
2013-01-11 12:44:00,69.8,61.1,29.94,SE,145,3.6,5.4,74,0.00,,SKC,0.00,VWS V13.01,2013-01-11 18:44:00,
2013-01-11 12:45:00,69.8,60.4,29.94,SE,140,8.1,8.1,72,0.00,,SKC,0.00,VWS V13.01,2013-01-11 18:45:00,
2013-01-11 12:46:00,69.8,60.4,29.94,SSE,158,6.3,8.1,72,0.00,,SKC,0.00,VWS V13.01,2013-01-11 18:46:00,
2013-01-11 12:47:00,69.8,60.7,29.94,SE,136,4.0,7.2,73,0.00,,SKC,0.00,VWS V13.01,2013-01-11 18:47:00,
2013-01-11 12:48:00,69.8,61.1,29.94,SSE,157,3.1,8.7,74,0.00,,SKC,0.00,VWS V13.01,2013-01-11 18:48:00,
2013-01-11 12:49:00,69.8,60.7,29.94,SE,128,6.3,7.6,73,0.00,,SKC,0.00,VWS V13.01,2013-01-11 18:49:00,
2013-01-11 12:50:00,69.8,60.4,29.94,SE,127,7.6,7.6,72,0.00,,SKC,0.00,VWS V13.01,2013-01-11 18:50:00,
2013-01-11 12:51:00,69.8,60.4,29.94,SSE,161,5.8,7.6,72,0.00,,SKC,0.00,VWS V13.01,2013-01-11 18:51:00,
2013-01-11 12:52:00,69.8,60.7,29.94,SE,143,5.4,5.8,73,0.00,,SKC,0.00,VWS V13.01,2013-01-11 18:52:00,
2013-01-11 12:53:00,69.6,60.2,29.94,SSE,148,3.1,5.8,72,0.00,,SKC,0.00,VWS V13.01,2013-01-11 18:53:00,
2013-01-11 12:54:00,69.6,59.8,29.94,SSE,152,8.1,8.1,71,0.00,,SKC,0.00,VWS V13.01,2013-01-11 18:54:00,
2013-01-11 12:55:00,69.4,60.8,29.94,SSE,162,4.0,8.1,74,0.00,,SKC,0.00,VWS V13.01,2013-01-11 18:55:00,
2013-01-11 12:56:00,69.6,61.0,29.94,ESE,106,3.6,5.4,74,0.00,,SKC,0.00,VWS V13.01,2013-01-11 18:56:00,
2013-01-11 12:57:00,69.6,61.7,29.91,SE,141,8.1,8.7,76,0.00,,SKC,0.00,VWS V13.01,2013-01-11 18:57:00,
2013-01-11 12:58:00,69.8,62.2,29.91,SE,126,4.9,8.1,77,0.00,,SKC,0.00,VWS V13.01,2013-01-11 18:58:00,
2013-01-11 12:59:00,69.8,61.9,29.91,ESE,111,3.6,6.3,76,0.00,,SKC,0.00,VWS V13.01,2013-01-11 18:59:00,
2013-01-11 13:00:00,69.8,61.1,29.91,ESE,108,5.8,5.8,74,0.00,,SKC,0.00,VWS V13.01,2013-01-11 19:00:00,
2013-01-11 13:01:00,70.0,61.3,29.91,SE,142,5.4,5.8,74,0.00,,SKC,0.00,VWS V13.01,2013-01-11 19:01:00,
2013-01-11 13:02:00,69.8,60.4,29.91,SE,130,5.8,8.1,72,0.00,,SKC,0.00,VWS V13.01,2013-01-11 19:02:00,
2013-01-11 13:03:00,70.0,60.5,29.91,East,96,3.1,5.8,72,0.00,,SKC,0.00,VWS V13.01,2013-01-11 19:03:00,
2013-01-11 13:04:00,70.0,60.9,29.91,SSE,153,2.7,5.8,73,0.00,,SKC,0.00,VWS V13.01,2013-01-11 19:04:00,
2013-01-11 13:05:00,70.0,60.9,29.91,ESE,116,5.4,5.4,73,0.00,,SKC,0.00,VWS V13.01,2013-01-11 19:05:00,
2013-01-11 13:06:00,70.1,61.1,29.91,South,184,5.4,5.4,73,0.00,,SKC,0.00,VWS V13.01,2013-01-11 19:06:00,
2013-01-11 13:07:00,70.1,59.9,29.91,SE,139,6.3,7.6,70,0.00,,SKC,0.00,VWS V13.01,2013-01-11 19:07:00,
2013-01-11 13:08:00,70.1,59.9,29.91,SE,130,5.4,8.3,70,0.00,,SKC,0.00,VWS V13.01,2013-01-11 19:08:00,
2013-01-11 13:09:00,70.1,59.9,29.91,SE,130,5.8,5.8,70,0.00,,SKC,0.00,VWS V13.01,2013-01-11 19:09:00,
2013-01-11 13:10:00,70.3,60.1,29.91,ESE,106,6.3,6.3,70,0.00,,SKC,0.00,VWS V13.01,2013-01-11 19:10:00,
2013-01-11 13:11:00,70.5,60.7,29.91,SSE,151,5.4,6.3,71,0.00,,SKC,0.00,VWS V13.01,2013-01-11 19:11:00,
2013-01-11 13:12:00,70.5,60.7,29.91,SE,134,6.3,8.7,71,0.00,,SKC,0.00,VWS V13.01,2013-01-11 19:12:00,
2013-01-11 13:13:00,70.5,60.3,29.91,SE,132,8.1,8.1,70,0.00,,SKC,0.00,VWS V13.01,2013-01-11 19:13:00,
2013-01-11 13:14:00,70.5,59.8,29.91,SSE,151,3.6,8.1,69,0.00,,SKC,0.00,VWS V13.01,2013-01-11 19:14:00,
2013-01-11 13:15:00,70.7,60.8,29.91,SSE,161,5.4,8.1,71,0.00,,SKC,0.00,VWS V13.01,2013-01-11 19:15:00,
2013-01-11 13:16:00,70.7,60.4,29.91,South,172,4.0,5.8,70,0.00,,SKC,0.00,VWS V13.01,2013-01-11 19:16:00,
2013-01-11 13:17:00,70.7,60.8,29.91,East,85,3.6,5.4,71,0.00,,SKC,0.00,VWS V13.01,2013-01-11 19:17:00,
2013-01-11 13:18:00,70.5,60.3,29.91,SSE,153,5.4,5.8,70,0.00,,SKC,0.00,VWS V13.01,2013-01-11 19:18:00,
2013-01-11 13:19:00,70.5,60.7,29.91,SE,128,5.4,5.4,71,0.00,,SKC,0.00,VWS V13.01,2013-01-11 19:19:00,
2013-01-11 13:20:00,70.5,60.7,29.91,SSE,157,7.6,8.1,71,0.00,,SKC,0.00,VWS V13.01,2013-01-11 19:20:00,
2013-01-11 13:21:00,70.5,60.3,29.91,SE,140,5.4,7.6,70,0.00,,SKC,0.00,VWS V13.01,2013-01-11 19:21:00,
2013-01-11 13:22:00,70.5,60.7,29.91,East,99,5.8,8.1,71,0.00,,SKC,0.00,VWS V13.01,2013-01-11 19:22:00,
2013-01-11 13:23:00,70.5,60.7,29.91,SSE,165,3.1,5.8,71,0.00,,SKC,0.00,VWS V13.01,2013-01-11 19:23:00,
2013-01-11 13:24:00,70.5,60.3,29.91,South,181,3.1,5.4,70,0.00,,SKC,0.00,VWS V13.01,2013-01-11 19:24:00,
2013-01-11 13:25:00,70.5,60.7,29.91,ESE,117,4.0,6.3,71,0.00,,SKC,0.00,VWS V13.01,2013-01-11 19:25:00,
2013-01-11 13:26:00,70.3,60.1,29.91,ESE,113,7.6,7.6,70,0.00,,SKC,0.00,VWS V13.01,2013-01-11 19:26:00,
2013-01-11 13:27:00,70.3,60.5,29.91,SE,132,6.7,8.3,71,0.00,,SKC,0.00,VWS V13.01,2013-01-11 19:27:00,
2013-01-11 13:28:00,70.3,60.5,29.91,SSE,153,5.8,7.6,71,0.00,,SKC,0.00,VWS V13.01,2013-01-11 19:28:00,
2013-01-11 13:29:00,70.1,60.3,29.91,East,87,5.4,7.6,71,0.00,,SKC,0.00,VWS V13.01,2013-01-11 19:29:00,
2013-01-11 13:30:00,70.1,59.9,29.91,ESE,118,7.6,7.6,70,0.00,,SKC,0.00,VWS V13.01,2013-01-11 19:30:00,
2013-01-11 13:31:00,70.1,60.3,29.91,ESE,108,5.4,8.1,71,0.00,,SKC,0.00,VWS V13.01,2013-01-11 19:31:00,
2013-01-11 13:32:00,70.0,60.1,29.91,ESE,112,5.4,6.3,71,0.00,,SKC,0.00,VWS V13.01,2013-01-11 19:32:00,
2013-01-11 13:33:00,70.0,60.1,29.91,SSE,165,4.0,6.3,71,0.00,,SKC,0.00,VWS V13.01,2013-01-11 19:33:00,
2013-01-11 13:34:00,69.8,60.0,29.91,SE,130,4.0,6.3,71,0.00,,SKC,0.00,VWS V13.01,2013-01-11 19:34:00,
2013-01-11 13:35:00,69.8,60.4,29.91,SSE,156,8.3,8.3,72,0.00,,SKC,0.00,VWS V13.01,2013-01-11 19:35:00,
2013-01-11 13:36:00,69.6,60.6,29.91,SE,144,6.3,8.3,73,0.00,,SKC,0.00,VWS V13.01,2013-01-11 19:36:00,
2013-01-11 13:37:00,69.6,60.6,29.91,East,89,4.0,7.6,73,0.00,,SKC,0.00,VWS V13.01,2013-01-11 19:37:00,
2013-01-11 13:38:00,69.6,60.6,29.91,SSE,154,8.3,8.3,73,0.00,,SKC,0.00,VWS V13.01,2013-01-11 19:38:00,
2013-01-11 13:39:00,69.4,60.8,29.91,ESE,115,3.6,8.3,74,0.00,,SKC,0.00,VWS V13.01,2013-01-11 19:39:00,
2013-01-11 13:40:00,69.4,60.4,29.91,South,175,3.6,5.8,73,0.00,,SKC,0.00,VWS V13.01,2013-01-11 19:40:00,
2013-01-11 13:41:00,69.4,60.4,29.91,East,92,3.6,3.6,73,0.00,,SKC,0.00,VWS V13.01,2013-01-11 19:41:00,
2013-01-11 13:42:00,69.2,60.6,29.91,East,90,5.4,8.7,74,0.00,,SKC,0.00,VWS V13.01,2013-01-11 19:42:00,
2013-01-11 13:43:00,69.2,61.0,29.91,ESE,109,4.0,6.3,75,0.00,,SKC,0.00,VWS V13.01,2013-01-11 19:43:00,
2013-01-11 13:44:00,69.2,61.0,29.91,ESE,112,3.6,4.9,75,0.00,,SKC,0.00,VWS V13.01,2013-01-11 19:44:00,
2013-01-11 13:45:00,69.2,61.4,29.91,ESE,116,3.6,7.6,76,0.00,,SKC,0.00,VWS V13.01,2013-01-11 19:45:00,
2013-01-11 13:46:00,69.2,61.4,29.91,South,169,7.6,9.6,76,0.00,,SKC,0.00,VWS V13.01,2013-01-11 19:46:00,
2013-01-11 13:47:00,69.1,60.8,29.91,ESE,105,4.9,5.8,75,0.00,,SKC,0.00,VWS V13.01,2013-01-11 19:47:00,
2013-01-11 13:48:00,69.1,60.8,29.91,ESE,105,4.9,5.8,75,0.00,,SKC,0.00,VWS V13.01,2013-01-11 19:48:00,
2013-01-11 13:49:00,68.9,60.3,29.91,SSE,158,7.6,10.5,74,0.00,,SKC,0.00,VWS V13.01,2013-01-11 19:49:00,
2013-01-11 13:50:00,68.9,60.6,29.91,SE,127,4.0,7.6,75,0.00,,SKC,0.00,VWS V13.01,2013-01-11 19:50:00,
2013-01-11 13:51:00,68.9,60.6,29.91,East,91,5.4,5.4,75,0.00,,SKC,0.00,VWS V13.01,2013-01-11 19:51:00,
2013-01-11 13:52:00,68.7,60.5,29.91,ESE,119,6.3,9.6,75,0.00,,SKC,0.00,VWS V13.01,2013-01-11 19:52:00,
2013-01-11 13:53:00,68.5,60.3,29.91,ESE,102,6.3,9.2,75,0.00,,SKC,0.00,VWS V13.01,2013-01-11 19:53:00,
2013-01-11 13:54:00,68.5,60.7,29.91,SE,138,2.7,7.6,76,0.00,,SKC,0.00,VWS V13.01,2013-01-11 19:54:00,
2013-01-11 13:55:00,68.3,60.9,29.91,SSE,164,7.6,7.6,77,0.00,,SKC,0.00,VWS V13.01,2013-01-11 19:55:00,
2013-01-11 13:56:00,68.3,60.9,29.91,SE,127,6.3,7.6,77,0.00,,SKC,0.00,VWS V13.01,2013-01-11 19:56:00,
2013-01-11 13:57:00,68.2,60.7,29.91,SE,136,3.6,8.3,77,0.00,,SKC,0.00,VWS V13.01,2013-01-11 19:57:00,
2013-01-11 13:58:00,68.2,61.0,29.91,East,98,5.4,6.3,78,0.00,,SKC,0.00,VWS V13.01,2013-01-11 19:58:00,
2013-01-11 13:59:00,68.2,61.0,29.91,ESE,116,6.3,6.3,78,0.00,,SKC,0.00,VWS V13.01,2013-01-11 19:59:00,
2013-01-11 14:00:00,68.0,60.9,29.91,SE,125,3.1,6.3,78,0.00,,SKC,0.00,VWS V13.01,2013-01-11 20:00:00,
2013-01-11 14:01:00,68.0,60.9,29.91,ESE,112,4.9,5.8,78,0.00,,SKC,0.00,VWS V13.01,2013-01-11 20:01:00,
2013-01-11 14:02:00,68.0,61.2,29.91,SE,124,5.4,5.4,79,0.00,,SKC,0.00,VWS V13.01,2013-01-11 20:02:00,
2013-01-11 14:03:00,68.0,61.2,29.91,SSE,150,4.9,5.4,79,0.00,,SKC,0.00,VWS V13.01,2013-01-11 20:03:00,
2013-01-11 14:04:00,67.8,61.1,29.91,ESE,104,4.9,4.9,79,0.00,,SKC,0.00,VWS V13.01,2013-01-11 20:04:00,
2013-01-11 14:05:00,67.8,61.1,29.91,ESE,108,4.0,5.8,79,0.00,,SKC,0.00,VWS V13.01,2013-01-11 20:05:00,
2013-01-11 14:06:00,67.8,61.1,29.91,SSE,161,3.1,4.0,79,0.00,,SKC,0.00,VWS V13.01,2013-01-11 20:06:00,
2013-01-11 14:07:00,68.0,61.6,29.91,East,95,5.4,6.3,80,0.00,,SKC,0.00,VWS V13.01,2013-01-11 20:07:00,
2013-01-11 14:08:00,68.0,61.2,29.91,SSW,192,4.0,7.2,79,0.00,,SKC,0.00,VWS V13.01,2013-01-11 20:08:00,
2013-01-11 14:09:00,68.0,61.2,29.91,SE,125,4.0,5.4,79,0.00,,SKC,0.00,VWS V13.01,2013-01-11 20:09:00,
2013-01-11 14:10:00,68.0,61.2,29.91,ESE,122,6.3,6.3,79,0.00,,SKC,0.00,VWS V13.01,2013-01-11 20:10:00,
2013-01-11 14:11:00,68.0,61.2,29.91,ESE,113,3.1,6.3,79,0.00,,SKC,0.00,VWS V13.01,2013-01-11 20:11:00,
2013-01-11 14:12:00,68.0,61.2,29.91,ESE,121,4.0,7.6,79,0.00,,SKC,0.00,VWS V13.01,2013-01-11 20:12:00,
2013-01-11 14:13:00,68.0,61.2,29.91,SE,130,4.0,4.0,79,0.00,,SKC,0.00,VWS V13.01,2013-01-11 20:13:00,
2013-01-11 14:14:00,68.0,61.2,29.91,SSE,158,3.6,6.3,79,0.00,,SKC,0.00,VWS V13.01,2013-01-11 20:14:00,
2013-01-11 14:15:00,68.0,61.2,29.91,SSE,154,5.8,8.1,79,0.00,,SKC,0.00,VWS V13.01,2013-01-11 20:15:00,
2013-01-11 14:16:00,68.0,61.2,29.91,ESE,107,7.6,7.6,79,0.00,,SKC,0.00,VWS V13.01,2013-01-11 20:16:00,
2013-01-11 14:17:00,68.2,61.0,29.91,SE,135,4.0,5.4,78,0.00,,SKC,0.00,VWS V13.01,2013-01-11 20:17:00,
2013-01-11 14:18:00,68.2,61.4,29.91,East,95,3.1,5.4,79,0.00,,SKC,0.00,VWS V13.01,2013-01-11 20:18:00,
2013-01-11 14:19:00,68.0,60.9,29.91,South,180,5.8,6.3,78,0.00,,SKC,0.00,VWS V13.01,2013-01-11 20:19:00,
2013-01-11 14:20:00,68.0,61.2,29.91,East,99,3.6,5.8,79,0.00,,SKC,0.00,VWS V13.01,2013-01-11 20:20:00,
2013-01-11 14:21:00,68.0,61.2,29.91,SSE,150,7.2,7.2,79,0.00,,SKC,0.00,VWS V13.01,2013-01-11 20:21:00,
2013-01-11 14:22:00,68.0,61.2,29.91,SE,128,4.0,8.1,79,0.00,,SKC,0.00,VWS V13.01,2013-01-11 20:22:00,
2013-01-11 14:23:00,68.0,61.2,29.91,ESE,119,6.3,6.3,79,0.00,,SKC,0.00,VWS V13.01,2013-01-11 20:23:00,
2013-01-11 14:24:00,67.8,61.1,29.91,East,84,5.4,6.3,79,0.00,,SKC,0.00,VWS V13.01,2013-01-11 20:24:00,
2013-01-11 14:25:00,68.0,61.2,29.91,ESE,105,3.1,7.6,79,0.00,,SKC,0.00,VWS V13.01,2013-01-11 20:25:00,
2013-01-11 14:26:00,68.0,61.2,29.91,South,174,3.6,3.6,79,0.00,,SKC,0.00,VWS V13.01,2013-01-11 20:26:00,
2013-01-11 14:27:00,68.0,61.6,29.91,SE,135,5.8,8.1,80,0.00,,SKC,0.00,VWS V13.01,2013-01-11 20:27:00,
2013-01-11 14:28:00,68.0,61.6,29.91,East,87,5.4,5.8,80,0.00,,SKC,0.00,VWS V13.01,2013-01-11 20:28:00,
2013-01-11 14:29:00,68.0,61.6,29.91,SSE,162,4.0,6.3,80,0.00,,SKC,0.00,VWS V13.01,2013-01-11 20:29:00,
2013-01-11 14:30:00,68.0,61.6,29.91,ESE,118,6.7,6.7,80,0.00,,SKC,0.00,VWS V13.01,2013-01-11 20:30:00,
2013-01-11 14:31:00,68.0,61.6,29.91,ESE,109,5.8,8.3,80,0.00,,SKC,0.00,VWS V13.01,2013-01-11 20:31:00,
2013-01-11 14:32:00,68.0,61.6,29.91,SSE,148,3.1,6.3,80,0.00,,SKC,0.00,VWS V13.01,2013-01-11 20:32:00,
2013-01-11 14:33:00,68.0,61.2,29.91,ESE,122,5.4,5.4,79,0.00,,SKC,0.00,VWS V13.01,2013-01-11 20:33:00,
2013-01-11 14:34:00,68.0,61.2,29.91,ESE,118,3.1,5.8,79,0.00,,SKC,0.00,VWS V13.01,2013-01-11 20:34:00,
2013-01-11 14:35:00,68.2,61.4,29.91,SW,215,5.4,8.7,79,0.00,,SKC,0.00,VWS V13.01,2013-01-11 20:35:00,
2013-01-11 14:36:00,68.2,61.4,29.91,SE,133,3.1,6.3,79,0.00,,SKC,0.00,VWS V13.01,2013-01-11 20:36:00,
2013-01-11 14:37:00,68.2,61.4,29.91,SE,125,8.1,8.7,79,0.00,,SKC,0.00,VWS V13.01,2013-01-11 20:37:00,
2013-01-11 14:38:00,68.2,61.4,29.91,ESE,123,4.0,8.1,79,0.00,,SKC,0.00,VWS V13.01,2013-01-11 20:38:00,
2013-01-11 14:39:00,68.2,61.4,29.91,SE,135,4.0,8.1,79,0.00,,SKC,0.00,VWS V13.01,2013-01-11 20:39:00,
2013-01-11 14:40:00,68.2,61.4,29.91,East,86,3.6,7.6,79,0.00,,SKC,0.00,VWS V13.01,2013-01-11 20:40:00,
2013-01-11 14:41:00,68.3,61.9,29.91,SE,146,4.0,5.8,80,0.00,,SKC,0.00,VWS V13.01,2013-01-11 20:41:00,
2013-01-11 14:42:00,68.3,61.9,29.91,SSE,149,7.6,8.3,80,0.00,,SKC,0.00,VWS V13.01,2013-01-11 20:42:00,
2013-01-11 14:43:00,68.5,62.1,29.91,SSE,152,6.3,8.1,80,0.00,,SKC,0.00,VWS V13.01,2013-01-11 20:43:00,
2013-01-11 14:44:00,68.5,62.1,29.91,ESE,122,6.7,7.6,80,0.00,,SKC,0.00,VWS V13.01,2013-01-11 20:44:00,
2013-01-11 14:45:00,68.5,61.8,29.91,ESE,105,5.8,8.3,79,0.00,,SKC,0.00,VWS V13.01,2013-01-11 20:45:00,
2013-01-11 14:46:00,68.5,61.8,29.91,SE,126,12.3,12.3,79,0.00,,SKC,0.00,VWS V13.01,2013-01-11 20:46:00,
2013-01-11 14:47:00,68.5,61.8,29.91,ESE,123,5.4,6.3,79,0.00,,SKC,0.00,VWS V13.01,2013-01-11 20:47:00,
2013-01-11 14:48:00,68.7,61.9,29.91,ESE,117,3.6,5.8,79,0.00,,SKC,0.00,VWS V13.01,2013-01-11 20:48:00,
2013-01-11 14:49:00,68.7,61.9,29.91,SE,134,5.4,6.3,79,0.00,,SKC,0.00,VWS V13.01,2013-01-11 20:49:00,
2013-01-11 14:50:00,68.9,61.8,29.91,SE,124,4.9,6.3,78,0.00,,SKC,0.00,VWS V13.01,2013-01-11 20:50:00,
2013-01-11 14:51:00,68.9,61.8,29.91,SE,142,4.0,4.9,78,0.00,,SKC,0.00,VWS V13.01,2013-01-11 20:51:00,
2013-01-11 14:52:00,68.9,61.8,29.91,ESE,109,3.1,6.3,78,0.00,,SKC,0.00,VWS V13.01,2013-01-11 20:52:00,
2013-01-11 14:53:00,68.9,61.0,29.91,ESE,112,7.6,7.6,76,0.00,,SKC,0.00,VWS V13.01,2013-01-11 20:53:00,
2013-01-11 14:54:00,68.9,61.4,29.91,ESE,116,7.2,7.6,77,0.00,,SKC,0.00,VWS V13.01,2013-01-11 20:54:00,
2013-01-11 14:55:00,68.9,61.4,29.91,ESE,115,6.3,7.2,77,0.00,,SKC,0.00,VWS V13.01,2013-01-11 20:55:00,
2013-01-11 14:56:00,68.9,61.4,29.91,ESE,122,4.0,6.3,77,0.00,,SKC,0.00,VWS V13.01,2013-01-11 20:56:00,
2013-01-11 14:57:00,68.9,61.4,29.91,ESE,102,6.3,8.3,77,0.00,,SKC,0.00,VWS V13.01,2013-01-11 20:57:00,
2013-01-11 14:58:00,68.9,61.4,29.91,East,100,3.6,7.2,77,0.00,,SKC,0.00,VWS V13.01,2013-01-11 20:58:00,
2013-01-11 14:59:00,68.7,61.2,29.91,ESE,103,4.9,8.3,77,0.00,,SKC,0.00,VWS V13.01,2013-01-11 20:59:00,
2013-01-11 15:00:00,68.9,61.8,29.91,SE,138,8.1,8.1,78,0.00,,SKC,0.00,VWS V13.01,2013-01-11 21:00:00,
2013-01-11 15:01:00,68.9,61.8,29.91,SSE,152,8.1,8.1,78,0.00,,SKC,0.00,VWS V13.01,2013-01-11 21:01:00,
2013-01-11 15:02:00,68.9,61.8,29.91,SSE,149,5.4,5.8,78,0.00,,SKC,0.00,VWS V13.01,2013-01-11 21:02:00,
2013-01-11 15:03:00,68.9,61.8,29.91,ESE,117,4.0,5.4,78,0.00,,SKC,0.00,VWS V13.01,2013-01-11 21:03:00,
2013-01-11 15:04:00,68.9,61.4,29.91,SSE,148,5.8,7.6,77,0.00,,SKC,0.00,VWS V13.01,2013-01-11 21:04:00,
2013-01-11 15:05:00,68.9,61.4,29.91,ESE,109,5.4,5.8,77,0.00,,SKC,0.00,VWS V13.01,2013-01-11 21:05:00,
2013-01-11 15:06:00,68.9,61.4,29.91,East,92,4.0,5.4,77,0.00,,SKC,0.00,VWS V13.01,2013-01-11 21:06:00,
2013-01-11 15:07:00,68.9,61.4,29.91,ESE,121,3.6,4.0,77,0.00,,SKC,0.00,VWS V13.01,2013-01-11 21:07:00,
2013-01-11 15:08:00,68.9,61.4,29.91,SE,142,3.1,3.6,77,0.00,,SKC,0.00,VWS V13.01,2013-01-11 21:08:00,
2013-01-11 15:09:00,68.7,61.2,29.91,ESE,103,5.4,5.8,77,0.00,,SKC,0.00,VWS V13.01,2013-01-11 21:09:00,
2013-01-11 15:10:00,68.7,61.2,29.91,SE,132,5.4,5.4,77,0.00,,SKC,0.00,VWS V13.01,2013-01-11 21:10:00,
2013-01-11 15:11:00,68.5,61.0,29.91,SSE,161,5.8,5.8,77,0.00,,SKC,0.00,VWS V13.01,2013-01-11 21:11:00,
2013-01-11 15:12:00,68.5,61.0,29.91,SSE,161,3.1,4.0,77,0.00,,SKC,0.00,VWS V13.01,2013-01-11 21:12:00,
2013-01-11 15:13:00,68.5,61.4,29.91,ESE,123,3.1,5.4,78,0.00,,SKC,0.00,VWS V13.01,2013-01-11 21:13:00,
2013-01-11 15:14:00,68.5,61.4,29.91,SSW,195,4.0,4.0,78,0.00,,SKC,0.00,VWS V13.01,2013-01-11 21:14:00,
2013-01-11 15:15:00,68.3,61.2,29.91,ESE,112,3.1,4.0,78,0.00,,SKC,0.00,VWS V13.01,2013-01-11 21:15:00,
2013-01-11 15:16:00,68.3,61.2,29.91,SE,145,5.8,5.8,78,0.00,,SKC,0.00,VWS V13.01,2013-01-11 21:16:00,
2013-01-11 15:17:00,68.3,61.6,29.91,ESE,108,4.5,5.8,79,0.00,,SKC,0.00,VWS V13.01,2013-01-11 21:17:00,
2013-01-11 15:18:00,68.3,61.6,29.91,South,176,3.1,5.4,79,0.00,,SKC,0.00,VWS V13.01,2013-01-11 21:18:00,
2013-01-11 15:19:00,68.3,61.6,29.91,SE,144,4.9,4.9,79,0.00,,SKC,0.00,VWS V13.01,2013-01-11 21:19:00,
2013-01-11 15:20:00,68.3,61.6,29.91,East,98,2.7,5.4,79,0.00,,SKC,0.00,VWS V13.01,2013-01-11 21:20:00,
2013-01-11 15:21:00,68.3,61.6,29.91,ESE,113,5.4,5.4,79,0.00,,SKC,0.00,VWS V13.01,2013-01-11 21:21:00,
2013-01-11 15:22:00,68.2,61.4,29.91,SSE,159,3.1,8.1,79,0.00,,SKC,0.00,VWS V13.01,2013-01-11 21:22:00,
2013-01-11 15:23:00,68.2,61.4,29.91,ESE,113,5.8,7.6,79,0.00,,SKC,0.00,VWS V13.01,2013-01-11 21:23:00,
2013-01-11 15:24:00,68.2,61.8,29.91,ESE,121,5.4,5.8,80,0.00,,SKC,0.00,VWS V13.01,2013-01-11 21:24:00,
2013-01-11 15:25:00,68.0,61.6,29.91,ESE,118,6.3,6.3,80,0.00,,SKC,0.00,VWS V13.01,2013-01-11 21:25:00,
2013-01-11 15:26:00,68.0,61.6,29.91,SE,130,6.7,6.7,80,0.00,,SKC,0.00,VWS V13.01,2013-01-11 21:26:00,
2013-01-11 15:27:00,68.0,61.6,29.91,East,97,8.3,9.2,80,0.00,,SKC,0.00,VWS V13.01,2013-01-11 21:27:00,
2013-01-11 15:28:00,67.8,61.4,29.91,SE,129,3.6,8.3,80,0.00,,SKC,0.00,VWS V13.01,2013-01-11 21:28:00,
2013-01-11 15:29:00,67.8,61.4,29.91,SSE,163,5.8,5.8,80,0.00,,SKC,0.00,VWS V13.01,2013-01-11 21:29:00,
2013-01-11 15:30:00,67.8,61.4,29.91,SE,134,4.0,6.3,80,0.00,,SKC,0.00,VWS V13.01,2013-01-11 21:30:00,
2013-01-11 15:31:00,67.8,61.8,29.91,East,97,4.0,4.0,81,0.00,,SKC,0.00,VWS V13.01,2013-01-11 21:31:00,
2013-01-11 15:32:00,67.6,61.6,29.91,ESE,120,5.4,8.1,81,0.00,,SKC,0.00,VWS V13.01,2013-01-11 21:32:00,
2013-01-11 15:33:00,67.6,61.6,29.91,South,171,2.7,6.3,81,0.00,,SKC,0.00,VWS V13.01,2013-01-11 21:33:00,
2013-01-11 15:34:00,67.6,61.6,29.91,ESE,119,5.8,5.8,81,0.00,,SKC,0.00,VWS V13.01,2013-01-11 21:34:00,
2013-01-11 15:35:00,67.6,61.9,29.91,ESE,120,4.0,5.8,82,0.00,,SKC,0.00,VWS V13.01,2013-01-11 21:35:00,
2013-01-11 15:36:00,67.6,61.9,29.91,SE,125,7.6,7.6,82,0.00,,SKC,0.00,VWS V13.01,2013-01-11 21:36:00,
2013-01-11 15:37:00,67.4,61.8,29.91,South,172,4.0,5.8,82,0.00,,SKC,0.00,VWS V13.01,2013-01-11 21:37:00,
2013-01-11 15:38:00,67.4,61.8,29.91,South,170,3.6,4.9,82,0.00,,SKC,0.00,VWS V13.01,2013-01-11 21:38:00,
2013-01-11 15:39:00,67.4,61.8,29.91,SSE,163,4.9,5.8,82,0.00,,SKC,0.00,VWS V13.01,2013-01-11 21:39:00,
2013-01-11 15:40:00,67.4,61.8,29.91,ESE,121,8.3,8.3,82,0.00,,SKC,0.00,VWS V13.01,2013-01-11 21:40:00,
2013-01-11 15:41:00,67.3,61.6,29.91,SE,138,7.2,8.3,82,0.00,,SKC,0.00,VWS V13.01,2013-01-11 21:41:00,
2013-01-11 15:42:00,67.3,61.6,29.91,SSE,149,5.4,5.4,82,0.00,,SKC,0.00,VWS V13.01,2013-01-11 21:42:00,
2013-01-11 15:43:00,67.3,61.6,29.91,ESE,103,4.0,5.8,82,0.00,,SKC,0.00,VWS V13.01,2013-01-11 21:43:00,
2013-01-11 15:44:00,67.3,61.6,29.91,South,169,4.0,4.9,82,0.00,,SKC,0.00,VWS V13.01,2013-01-11 21:44:00,
2013-01-11 15:45:00,67.3,61.6,29.91,ESE,112,6.3,6.3,82,0.00,,SKC,0.00,VWS V13.01,2013-01-11 21:45:00,
2013-01-11 15:46:00,67.1,61.4,29.91,SE,134,3.1,6.3,82,0.00,,SKC,0.00,VWS V13.01,2013-01-11 21:46:00,
2013-01-11 15:47:00,67.1,61.4,29.91,ESE,116,3.6,5.4,82,0.00,,SKC,0.00,VWS V13.01,2013-01-11 21:47:00,
2013-01-11 15:48:00,67.1,61.4,29.91,East,96,5.8,5.8,82,0.00,,SKC,0.00,VWS V13.01,2013-01-11 21:48:00,
2013-01-11 15:49:00,67.1,61.8,29.91,ESE,116,5.8,5.8,83,0.00,,SKC,0.00,VWS V13.01,2013-01-11 21:49:00,
2013-01-11 15:50:00,66.9,61.6,29.91,ESE,104,4.9,8.3,83,0.00,,SKC,0.00,VWS V13.01,2013-01-11 21:50:00,
2013-01-11 15:51:00,66.9,61.6,29.91,ESE,113,4.0,5.4,83,0.00,,SKC,0.00,VWS V13.01,2013-01-11 21:51:00,
2013-01-11 15:52:00,66.9,61.6,29.91,SE,141,4.9,5.4,83,0.00,,SKC,0.00,VWS V13.01,2013-01-11 21:52:00,
2013-01-11 15:53:00,66.9,61.6,29.91,SE,129,3.1,5.8,83,0.00,,SKC,0.00,VWS V13.01,2013-01-11 21:53:00,
2013-01-11 15:54:00,66.9,61.6,29.91,East,98,4.9,5.4,83,0.00,,SKC,0.00,VWS V13.01,2013-01-11 21:54:00,
2013-01-11 15:55:00,66.7,61.4,29.91,SE,131,2.7,6.7,83,0.00,,SKC,0.00,VWS V13.01,2013-01-11 21:55:00,
2013-01-11 15:56:00,66.7,61.4,29.91,ESE,123,2.7,4.9,83,0.00,,SKC,0.00,VWS V13.01,2013-01-11 21:56:00,
2013-01-11 15:57:00,66.7,61.4,29.91,ESE,123,5.4,7.6,83,0.00,,SKC,0.00,VWS V13.01,2013-01-11 21:57:00,
2013-01-11 15:58:00,66.7,61.4,29.91,ESE,119,6.3,6.3,83,0.00,,SKC,0.00,VWS V13.01,2013-01-11 21:58:00,
2013-01-11 15:59:00,66.7,61.4,29.91,East,95,4.0,6.3,83,0.00,,SKC,0.00,VWS V13.01,2013-01-11 21:59:00,
2013-01-11 16:00:00,66.5,61.2,29.91,SSE,163,2.7,4.0,83,0.00,,SKC,0.00,VWS V13.01,2013-01-11 22:00:00,
2013-01-11 16:01:00,66.5,61.2,29.91,SSE,165,3.1,3.1,83,0.00,,SKC,0.00,VWS V13.01,2013-01-11 22:01:00,
2013-01-11 16:02:00,66.5,61.2,29.91,ESE,103,4.0,4.0,83,0.00,,SKC,0.00,VWS V13.01,2013-01-11 22:02:00,
2013-01-11 16:03:00,66.5,61.2,29.91,SSE,150,2.2,4.0,83,0.00,,SKC,0.00,VWS V13.01,2013-01-11 22:03:00,
2013-01-11 16:04:00,66.5,61.2,29.91,SE,128,4.0,6.3,83,0.00,,SKC,0.00,VWS V13.01,2013-01-11 22:04:00,
2013-01-11 16:05:00,66.4,61.4,29.91,SE,124,4.9,4.9,84,0.00,,SKC,0.00,VWS V13.01,2013-01-11 22:05:00,
2013-01-11 16:06:00,66.4,61.4,29.91,ESE,105,4.0,4.9,84,0.00,,SKC,0.00,VWS V13.01,2013-01-11 22:06:00,
2013-01-11 16:07:00,66.4,61.4,29.91,SE,144,4.0,5.4,84,0.00,,SKC,0.00,VWS V13.01,2013-01-11 22:07:00,
2013-01-11 16:23:00,66.0,61.7,29.91,SE,134,4.0,4.0,86,0.00,,SKC,0.00,VWS V13.01,2013-01-11 22:23:00,
2013-01-11 16:28:00,68.0,64.3,29.91,SSE,162,3.6,3.6,88,0.00,,SKC,0.00,VWS V13.01,2013-01-11 22:28:00,
2013-01-11 16:33:00,67.8,65.7,29.91,East,90,2.7,2.7,93,0.00,,SKC,0.00,VWS V13.01,2013-01-11 22:33:00,
2013-01-11 16:38:00,67.8,65.4,29.91,ESE,120,4.0,4.9,92,0.00,,SKC,0.00,VWS V13.01,2013-01-11 22:38:00,
2013-01-11 16:43:00,67.6,65.6,29.91,ESE,109,4.0,4.9,93,0.00,,SKC,0.00,VWS V13.01,2013-01-11 22:43:00,
2013-01-11 16:48:00,67.5,65.7,29.91,ESE,110,4.9,4.9,94,0.00,,SKC,0.00,VWS V13.01,2013-01-11 22:48:00,
2013-01-11 16:53:00,67.3,65.8,29.91,South,187,3.1,3.6,95,0.00,,SKC,0.00,VWS V13.01,2013-01-11 22:53:00,
2013-01-11 16:58:00,67.1,65.6,29.91,East,99,3.6,3.6,95,0.00,,SKC,0.00,VWS V13.01,2013-01-11 22:58:00,
2013-01-11 17:03:00,67.1,65.6,29.91,SE,131,3.6,4.0,95,0.00,,SKC,0.00,VWS V13.01,2013-01-11 23:03:00,
2013-01-11 17:08:00,67.1,65.9,29.91,ESE,108,3.1,3.1,96,0.00,,SKC,0.00,VWS V13.01,2013-01-11 23:08:00,
2013-01-11 17:13:00,66.9,65.8,29.91,South,170,3.1,3.6,96,0.00,,SKC,0.00,VWS V13.01,2013-01-11 23:13:00,
2013-01-11 17:18:00,66.9,65.8,29.91,SE,132,3.1,3.1,96,0.00,,SKC,0.00,VWS V13.01,2013-01-11 23:18:00,
2013-01-11 17:23:00,66.9,66.0,29.91,South,187,3.6,3.6,97,0.00,,SKC,0.00,VWS V13.01,2013-01-11 23:23:00,
2013-01-11 17:28:00,66.7,65.6,29.91,SE,128,2.7,2.7,96,0.00,,SKC,0.00,VWS V13.01,2013-01-11 23:28:00,
2013-01-11 17:33:00,66.7,65.9,29.91,SSE,158,2.7,3.6,97,0.00,,SKC,0.00,VWS V13.01,2013-01-11 23:33:00,
2013-01-11 17:38:00,66.7,65.9,29.91,SSE,153,3.1,4.0,97,0.00,,SKC,0.00,VWS V13.01,2013-01-11 23:38:00,
2013-01-11 17:43:00,66.7,66.2,29.91,ESE,111,2.2,2.7,98,0.00,,SKC,0.00,VWS V13.01,2013-01-11 23:43:00,
2013-01-11 17:48:00,66.6,66.0,29.91,South,175,4.0,4.0,98,0.00,,SKC,0.00,VWS V13.01,2013-01-11 23:48:00,
2013-01-11 17:52:00,66.6,66.3,29.91,SE,139,3.6,4.9,99,0.00,,SKC,0.00,VWS V13.01,2013-01-11 23:52:00,
2013-01-11 17:57:00,66.6,66.6,29.91,SE,133,3.6,3.6,100,0.00,,SKC,0.00,VWS V13.01,2013-01-11 23:57:00,
2013-01-11 18:02:00,66.4,66.4,29.91,SSE,147,3.6,3.6,100,0.00,,SKC,0.00,VWS V13.01,2013-01-12 00:02:00,
2013-01-11 18:07:00,66.4,66.4,29.91,SE,140,2.2,2.2,100,0.00,,SKC,0.00,VWS V13.01,2013-01-12 00:07:00,
2013-01-11 18:12:00,66.2,66.2,29.91,SE,142,4.5,4.5,100,0.00,,SKC,0.00,VWS V13.01,2013-01-12 00:12:00,
2013-01-11 18:17:00,66.2,66.2,29.91,SE,141,3.1,4.0,100,0.00,,SKC,0.00,VWS V13.01,2013-01-12 00:17:00,
2013-01-11 18:22:00,66.2,66.2,29.91,SSE,149,3.6,3.6,100,0.00,,SKC,0.00,VWS V13.01,2013-01-12 00:22:00,
2013-01-11 18:27:00,66.2,66.2,29.91,SE,125,2.7,2.7,100,0.00,,SKC,0.00,VWS V13.01,2013-01-12 00:27:00,
2013-01-11 18:32:00,66.2,66.2,29.91,SSE,166,2.7,5.4,100,0.00,,SKC,0.00,VWS V13.01,2013-01-12 00:32:00,
2013-01-11 18:37:00,66.2,66.2,29.91,SE,144,5.4,6.3,100,0.00,,SKC,0.00,VWS V13.01,2013-01-12 00:37:00,
2013-01-11 18:42:00,66.4,66.4,29.91,SE,139,3.6,3.6,100,0.00,,SKC,0.00,VWS V13.01,2013-01-12 00:42:00,
2013-01-11 18:47:00,66.4,66.4,29.94,ESE,116,3.6,5.8,100,0.00,,SKC,0.00,VWS V13.01,2013-01-12 00:47:00,
2013-01-11 18:52:00,66.4,66.4,29.94,SSE,165,8.1,8.1,100,0.00,,SKC,0.00,VWS V13.01,2013-01-12 00:52:00,
2013-01-11 18:57:00,66.4,66.4,29.94,SSE,161,5.4,5.4,100,0.00,,SKC,0.00,VWS V13.01,2013-01-12 00:57:00,
2013-01-11 19:02:00,66.4,66.4,29.91,South,174,2.7,5.4,100,0.00,,SKC,0.00,VWS V13.01,2013-01-12 01:02:00,
2013-01-11 19:07:00,66.4,66.4,29.91,SE,144,0.0,0.0,100,0.00,,SKC,0.00,VWS V13.01,2013-01-12 01:07:00,
2013-01-11 19:12:00,66.2,66.2,29.91,South,182,2.7,5.4,100,0.00,,SKC,0.00,VWS V13.01,2013-01-12 01:12:00,
2013-01-11 19:17:00,66.2,66.2,29.94,ESE,120,6.3,8.3,100,0.00,,SKC,0.00,VWS V13.01,2013-01-12 01:17:00,
2013-01-11 19:22:00,66.2,66.2,29.94,South,183,5.8,6.3,100,0.00,,SKC,0.00,VWS V13.01,2013-01-12 01:22:00,
2013-01-11 19:27:00,65.8,65.8,29.94,SSE,159,4.9,6.3,100,0.00,,SKC,0.00,VWS V13.01,2013-01-12 01:27:00,
2013-01-11 19:32:00,65.7,65.7,29.91,SE,136,3.1,6.3,100,0.00,,SKC,0.00,VWS V13.01,2013-01-12 01:32:00,
2013-01-11 19:37:00,65.7,65.7,29.91,SSE,148,5.8,7.6,100,0.00,,SKC,0.00,VWS V13.01,2013-01-12 01:37:00,
2013-01-11 19:42:00,65.7,65.7,29.91,SE,126,4.9,6.3,100,0.00,,SKC,0.00,VWS V13.01,2013-01-12 01:42:00,
2013-01-11 19:47:00,65.7,65.7,29.91,ENE,59,4.9,4.9,100,0.00,,SKC,0.00,VWS V13.01,2013-01-12 01:47:00,
2013-01-11 19:52:00,65.7,65.7,29.91,ESE,105,5.4,5.4,100,0.00,,SKC,0.00,VWS V13.01,2013-01-12 01:52:00,
2013-01-11 19:57:00,65.5,65.5,29.91,SSE,162,2.7,4.0,100,0.00,,SKC,0.00,VWS V13.01,2013-01-12 01:57:00,
2013-01-11 20:02:00,65.3,65.3,29.91,SE,125,0.0,0.0,100,0.00,,SKC,0.00,VWS V13.01,2013-01-12 02:02:00,
2013-01-11 20:07:00,65.1,65.1,29.91,SE,128,2.7,3.1,100,0.00,,SKC,0.00,VWS V13.01,2013-01-12 02:07:00,
2013-01-11 20:12:00,65.1,65.1,29.91,SE,145,0.0,3.1,100,0.00,,SKC,0.00,VWS V13.01,2013-01-12 02:12:00,
2013-01-11 20:17:00,65.3,65.3,29.94,SE,127,0.0,3.1,100,0.00,,SKC,0.00,VWS V13.01,2013-01-12 02:17:00,
2013-01-11 20:22:00,65.5,65.5,29.94,SE,128,3.6,5.8,100,0.00,,SKC,0.00,VWS V13.01,2013-01-12 02:22:00,
2013-01-11 20:27:00,65.5,65.5,29.94,ESE,116,2.2,2.2,100,0.00,,SKC,0.00,VWS V13.01,2013-01-12 02:27:00,
2013-01-11 20:32:00,65.7,65.7,29.94,South,172,5.8,5.8,100,0.00,,SKC,0.00,VWS V13.01,2013-01-12 02:32:00,
2013-01-11 20:37:00,65.8,65.8,29.94,SE,136,4.9,4.9,100,0.00,,SKC,0.00,VWS V13.01,2013-01-12 02:37:00,
2013-01-11 20:42:00,65.8,65.8,29.94,SSE,150,3.1,5.8,100,0.00,,SKC,0.00,VWS V13.01,2013-01-12 02:42:00,
2013-01-11 20:47:00,65.5,65.5,29.94,SE,143,5.4,5.4,100,0.00,,SKC,0.00,VWS V13.01,2013-01-12 02:47:00,
2013-01-11 20:52:00,65.3,65.3,29.94,South,173,3.6,4.0,100,0.00,,SKC,0.00,VWS V13.01,2013-01-12 02:52:00,
2013-01-11 20:57:00,65.1,65.1,29.94,SSE,158,2.2,6.3,100,0.00,,SKC,0.00,VWS V13.01,2013-01-12 02:57:00,
2013-01-11 21:02:00,65.1,65.1,29.94,SSE,163,2.7,3.1,100,0.00,,SKC,0.00,VWS V13.01,2013-01-12 03:02:00,
2013-01-11 21:07:00,65.1,65.1,29.94,SE,128,5.8,5.8,100,0.00,,SKC,0.00,VWS V13.01,2013-01-12 03:07:00,
2013-01-11 21:12:00,65.1,65.1,29.94,SE,130,4.9,6.3,100,0.00,,SKC,0.00,VWS V13.01,2013-01-12 03:12:00,
2013-01-11 21:17:00,65.1,65.1,29.94,ESE,111,3.1,3.1,100,0.00,,SKC,0.00,VWS V13.01,2013-01-12 03:17:00,
2013-01-11 21:22:00,64.9,64.9,29.94,SE,145,4.0,5.8,100,0.00,,SKC,0.00,VWS V13.01,2013-01-12 03:22:00,
2013-01-11 21:27:00,64.8,64.8,29.94,SE,137,3.6,5.8,100,0.00,,SKC,0.00,VWS V13.01,2013-01-12 03:27:00,
2013-01-11 21:32:00,64.8,64.8,29.94,South,169,4.5,4.9,100,0.00,,SKC,0.00,VWS V13.01,2013-01-12 03:32:00,
2013-01-11 21:37:00,64.8,64.8,29.94,ESE,112,3.1,3.6,100,0.00,,SKC,0.00,VWS V13.01,2013-01-12 03:37:00,
2013-01-11 21:42:00,64.8,64.8,29.94,SE,127,0.0,2.7,100,0.00,,SKC,0.00,VWS V13.01,2013-01-12 03:42:00,
2013-01-11 21:47:00,64.8,64.8,29.94,SSE,164,5.4,5.4,100,0.00,,SKC,0.00,VWS V13.01,2013-01-12 03:47:00,
2013-01-11 21:52:00,64.8,64.8,29.94,SSE,159,4.0,5.4,100,0.00,,SKC,0.00,VWS V13.01,2013-01-12 03:52:00,
2013-01-11 21:57:00,64.8,64.8,29.94,SSE,164,4.9,6.3,100,0.00,,SKC,0.00,VWS V13.01,2013-01-12 03:57:00,
2013-01-11 22:02:00,64.6,64.6,29.94,East,95,2.7,3.6,100,0.00,,SKC,0.00,VWS V13.01,2013-01-12 04:02:00,
2013-01-11 22:07:00,64.6,64.6,29.94,South,184,2.2,3.6,100,0.00,,SKC,0.00,VWS V13.01,2013-01-12 04:07:00,
2013-01-11 22:12:00,64.6,64.6,29.94,ESE,104,3.6,4.0,100,0.00,,SKC,0.00,VWS V13.01,2013-01-12 04:12:00,
2013-01-11 22:17:00,64.4,64.4,29.94,SSE,167,3.1,4.9,100,0.00,,SKC,0.00,VWS V13.01,2013-01-12 04:17:00,
2013-01-11 22:22:00,64.4,64.4,29.94,SSE,153,4.0,5.8,100,0.00,,SKC,0.00,VWS V13.01,2013-01-12 04:22:00,
2013-01-11 22:27:00,64.4,64.4,29.94,ESE,105,4.9,4.9,100,0.00,,SKC,0.00,VWS V13.01,2013-01-12 04:27:00,
2013-01-11 22:32:00,64.6,64.6,29.94,East,88,2.7,4.0,100,0.00,,SKC,0.00,VWS V13.01,2013-01-12 04:32:00,
2013-01-11 22:37:00,64.8,64.8,29.94,SE,139,3.1,3.1,100,0.00,,SKC,0.00,VWS V13.01,2013-01-12 04:37:00,
2013-01-11 22:42:00,64.8,64.8,29.94,ESE,115,4.0,5.8,100,0.00,,SKC,0.00,VWS V13.01,2013-01-12 04:42:00,
2013-01-11 22:47:00,64.8,64.8,29.94,SE,125,4.9,4.9,100,0.00,,SKC,0.00,VWS V13.01,2013-01-12 04:47:00,
2013-01-11 22:52:00,64.8,64.8,29.94,SE,136,4.0,4.5,100,0.00,,SKC,0.00,VWS V13.01,2013-01-12 04:52:00,
2013-01-11 22:57:00,64.6,64.6,29.94,SSE,166,2.7,5.8,100,0.00,,SKC,0.00,VWS V13.01,2013-01-12 04:57:00,
2013-01-11 23:00:00,64.6,64.6,29.94,SE,138,3.1,4.9,100,0.00,,SKC,0.00,VWS V13.01,2013-01-12 05:00:00,
2013-01-11 23:01:00,64.6,64.6,29.94,SSE,163,2.2,3.1,100,0.00,,SKC,0.00,VWS V13.01,2013-01-12 05:01:00,
2013-01-11 23:06:00,64.6,64.6,29.94,SSE,166,3.1,4.0,100,0.00,,SKC,0.00,VWS V13.01,2013-01-12 05:06:00,
2013-01-11 23:11:00,64.6,64.6,29.94,SE,133,4.9,5.4,100,0.00,,SKC,0.00,VWS V13.01,2013-01-12 05:11:00,
2013-01-11 23:16:00,64.4,64.4,29.91,SE,128,4.0,6.3,100,0.00,,SKC,0.00,VWS V13.01,2013-01-12 05:16:00,
2013-01-11 23:21:00,64.4,64.4,29.91,East,101,3.6,4.0,100,0.00,,SKC,0.00,VWS V13.01,2013-01-12 05:21:00,
2013-01-11 23:26:00,64.4,64.4,29.91,SSE,150,4.9,5.4,100,0.00,,SKC,0.00,VWS V13.01,2013-01-12 05:26:00,
2013-01-11 23:31:00,64.4,64.4,29.91,ESE,120,4.5,4.5,100,0.00,,SKC,0.00,VWS V13.01,2013-01-12 05:31:00,
2013-01-11 23:36:00,64.4,64.4,29.91,SE,138,3.6,4.9,100,0.00,,SKC,0.00,VWS V13.01,2013-01-12 05:36:00,
2013-01-11 23:41:00,64.6,64.6,29.91,ESE,106,3.6,5.4,100,0.00,,SKC,0.00,VWS V13.01,2013-01-12 05:41:00,
2013-01-11 23:46:00,64.4,64.4,29.91,SSE,166,2.7,2.7,100,0.00,,SKC,0.00,VWS V13.01,2013-01-12 05:46:00,
2013-01-11 23:51:00,64.4,64.4,29.91,ESE,110,5.4,5.4,100,0.00,,SKC,0.00,VWS V13.01,2013-01-12 05:51:00,
2013-01-11 23:56:00,64.4,64.4,29.91,South,169,5.8,6.7,100,0.00,,SKC,0.00,VWS V13.01,2013-01-12 05:56:00,